| time (UTC) | temp C | wind direction | speed KPH | gust KPH | rain 1hr cm | rain 24hr cm | rain mn cm | humidity % | barometer mb |
| 20260904071906 | 19 | 211 | 0.0 | 6.4 | 0.00 | 0.00 | 0.00 | 82 | 1015.9 |
| 20260904071806 | 19 | 205 | 0.0 | 6.4 | 0.00 | 0.00 | 0.00 | 82 | 1015.8 |
| 20260904071727 | 19 | 206 | 0.0 | 6.4 | 0.00 | 0.00 | 0.00 | 82 | 1015.8 |
| 20260904071706 | 19 | 208 | 0.0 | 9.7 | 0.00 | 0.00 | 0.00 | 82 | 1015.8 |
| 20260904071642 | 19 | 203 | 0.0 | 9.7 | 0.00 | 0.00 | 0.00 | 82 | 1016.2 |
| 20260904071626 | 19 | 205 | 0.0 | 9.7 | 0.00 | 0.00 | 0.00 | 82 | 1015.9 |
| 20260904071306 | 18 | 201 | 0.0 | 9.7 | 0.00 | 0.00 | 0.00 | 82 | 1016.0 |
| 20260904071226 | 18 | 218 | 3.2 | 9.7 | 0.00 | 0.00 | 0.00 | 82 | 1016.0 |
| 20260904071206 | 18 | 196 | 0.0 | 9.7 | 0.00 | 0.00 | 0.00 | 82 | 1016.0 |
| 20260904071054 | 19 | 199 | 1.6 | 9.7 | 0.00 | 0.00 | 0.00 | 82 | 1016.0 |
| 20260904070954 | 19 | 227 | 3.2 | 9.7 | 0.00 | 0.00 | 0.00 | 82 | 1015.9 |
| 20260904070854 | 19 | 204 | 1.6 | 9.7 | 0.00 | 0.00 | 0.00 | 82 | 1016.0 |
| 20260904070755 | 19 | 200 | 0.0 | 9.7 | 0.00 | 0.00 | 0.00 | 81 | 1015.7 |
| 20260904070725 | 19 | 239 | 4.8 | 9.7 | 0.00 | 0.00 | 0.00 | 81 | 1015.7 |
| 20260904070653 | 19 | 195 | 0.0 | 9.7 | 0.00 | 0.00 | 0.00 | 82 | 1015.9 |
| 20260904070553 | 19 | 198 | 0.0 | 9.7 | 0.00 | 0.00 | 0.00 | 82 | 1015.9 |
| 20260904070455 | 19 | 196 | 0.0 | 9.7 | 0.00 | 0.00 | 0.00 | 82 | 1015.9 |
| 20260904070354 | 19 | 195 | 0.0 | 9.7 | 0.00 | 0.00 | 0.00 | 82 | 1015.9 |
| 20260904070328 | 18 | 200 | 0.0 | 4.8 | 0.00 | 0.00 | 0.00 | 82 | 1016.0 |
| 20260904070322 | 18 | 191 | 0.0 | 4.8 | 0.00 | 0.00 | 0.00 | 83 | 1016.0 |
| 20260904070316 | 19 | 206 | 0.0 | 9.7 | 0.00 | 0.00 | 0.00 | 82 | 1015.8 |
| 20260904070301 | 19 | 191 | 0.0 | 9.7 | 0.00 | 0.00 | 0.00 | 82 | 1015.8 |
| 20260904070252 | 19 | 198 | 0.0 | 9.7 | 0.00 | 0.00 | 0.00 | 82 | 1015.7 |
| 20260904070237 | 19 | 204 | 0.0 | 9.7 | 0.00 | 0.00 | 0.00 | 81 | 1016.0 |
| 20260904070000 | 19 | 226 | 6.4 | 9.7 | 0.00 | 0.00 | 0.00 | 81 | 1015.7 |
| 20260904065943 | 19 | 203 | 3.2 | 4.8 | 0.00 | 0.00 | 0.00 | 81 | 1015.8 |
| 20260904065927 | 19 | 221 | 3.2 | 4.8 | 0.00 | 0.00 | 0.00 | 81 | 1015.8 |
| 20260904065918 | 19 | 208 | 3.2 | 4.8 | 0.00 | 0.00 | 0.00 | 81 | 1015.9 |
| 20260904065902 | 19 | 200 | 1.6 | 4.8 | 0.00 | 0.00 | 0.00 | 81 | 1015.8 |
| 20260904065847 | 19 | 209 | 1.6 | 4.8 | 0.00 | 0.00 | 0.00 | 81 | 1016.0 |
| 20260904065830 | 19 | 197 | 0.0 | 4.8 | 0.00 | 0.00 | 0.00 | 82 | 1015.8 |
| 20260904065343 | 18 | 187 | 0.0 | 4.8 | 0.00 | 0.00 | 0.00 | 82 | 1016.0 |
| 20260904065327 | 18 | 206 | 1.6 | 4.8 | 0.00 | 0.00 | 0.00 | 83 | 1016.0 |
| 20260904065311 | 18 | 231 | 3.2 | 4.8 | 0.00 | 0.00 | 0.00 | 83 | 1015.9 |
| 20260904065255 | 18 | 190 | 0.0 | 4.8 | 0.00 | 0.00 | 0.00 | 83 | 1016.1 |
| 20260904065240 | 18 | 244 | 0.0 | 4.8 | 0.00 | 0.00 | 0.00 | 83 | 1016.0 |
| 20260904065010 | 18 | 196 | 0.0 | 6.4 | 0.00 | 0.00 | 0.00 | 83 | 1015.8 |
| 20260904064954 | 18 | 191 | 1.6 | 6.4 | 0.00 | 0.00 | 0.00 | 83 | 1015.8 |
| 20260904064227 | 18 | 205 | 0.0 | 6.4 | 0.00 | 0.00 | 0.00 | 84 | 1015.8 |
| 20260904064155 | 18 | 174 | 0.0 | 6.4 | 0.00 | 0.00 | 0.00 | 84 | 1016.0 |
| 20260904064054 | 18 | 188 | 0.0 | 6.4 | 0.00 | 0.00 | 0.00 | 84 | 1016.1 |
| 20260904063954 | 18 | 196 | 0.0 | 6.4 | 0.00 | 0.00 | 0.00 | 84 | 1016.0 |
| 20260904063854 | 18 | 181 | 0.0 | 6.4 | 0.00 | 0.00 | 0.00 | 84 | 1015.9 |
| 20260904063754 | 18 | 210 | 0.0 | 6.4 | 0.00 | 0.00 | 0.00 | 84 | 1016.0 |
| 20260904063727 | 18 | 203 | 1.6 | 6.4 | 0.00 | 0.00 | 0.00 | 84 | 1016.0 |
| 20260904063654 | 18 | 186 | 0.0 | 6.4 | 0.00 | 0.00 | 0.00 | 84 | 1015.9 |
| 20260904063553 | 18 | 202 | 3.2 | 6.4 | 0.00 | 0.00 | 0.00 | 84 | 1016.0 |
| 20260904063455 | 18 | 203 | 0.0 | 6.4 | 0.00 | 0.00 | 0.00 | 84 | 1015.9 |
| 20260904063354 | 18 | 214 | 4.8 | 6.4 | 0.00 | 0.00 | 0.00 | 84 | 1015.8 |
| 20260904063337 | 18 | 200 | 0.0 | 3.2 | 0.00 | 0.00 | 0.00 | 84 | 1015.9 |
| 20260904063323 | 18 | 206 | 0.0 | 3.2 | 0.00 | 0.00 | 0.00 | 84 | 1015.9 |
| 20260904063314 | 18 | 206 | 1.6 | 3.2 | 0.00 | 0.00 | 0.00 | 84 | 1015.8 |
| 20260904062954 | 18 | 184 | 0.0 | 3.2 | 0.00 | 0.00 | 0.00 | 84 | 1016.0 |
| 20260904062855 | 18 | 208 | 0.0 | 3.2 | 0.00 | 0.00 | 0.00 | 84 | 1015.8 |
| 20260904062754 | 18 | 204 | 1.6 | 3.2 | 0.00 | 0.00 | 0.00 | 84 | 1015.8 |
| 20260904062726 | 18 | 190 | 0.0 | 3.2 | 0.00 | 0.00 | 0.00 | 84 | 1015.8 |
| 20260904062654 | 18 | 203 | 1.6 | 3.2 | 0.00 | 0.00 | 0.00 | 84 | 1015.8 |
| 20260904062554 | 18 | 185 | 0.0 | 3.2 | 0.00 | 0.00 | 0.00 | 84 | 1015.8 |
| 20260904062454 | 18 | 200 | 0.0 | 4.8 | 0.00 | 0.00 | 0.00 | 84 | 1015.8 |
| 20260904062354 | 18 | 199 | 0.0 | 4.8 | 0.00 | 0.00 | 0.00 | 85 | 1016.0 |
| 20260904062254 | 17 | 195 | 0.0 | 4.8 | 0.00 | 0.00 | 0.00 | 84 | 1015.9 |
| 20260904062226 | 17 | 191 | 0.0 | 4.8 | 0.00 | 0.00 | 0.00 | 84 | 1015.9 |
| 20260904062154 | 17 | 178 | 0.0 | 4.8 | 0.00 | 0.00 | 0.00 | 85 | 1016.0 |
| 20260904062053 | 17 | 200 | 0.0 | 4.8 | 0.00 | 0.00 | 0.00 | 85 | 1015.9 |
| 20260904061954 | 17 | 205 | 1.6 | 4.8 | 0.00 | 0.00 | 0.00 | 85 | 1015.7 |
| 20260904061855 | 17 | 201 | 0.0 | 4.8 | 0.00 | 0.00 | 0.00 | 85 | 1016.0 |
| 20260904061753 | 17 | 197 | 0.0 | 4.8 | 0.00 | 0.00 | 0.00 | 85 | 1015.7 |
| 20260904061726 | 17 | 202 | 0.0 | 4.8 | 0.00 | 0.00 | 0.00 | 85 | 1015.7 |
| 20260904061654 | 17 | 204 | 0.0 | 4.8 | 0.00 | 0.00 | 0.00 | 85 | 1015.8 |
| 20260904061554 | 17 | 216 | 3.2 | 4.8 | 0.00 | 0.00 | 0.00 | 85 | 1015.9 |
| 20260904061454 | 17 | 227 | 0.0 | 4.8 | 0.00 | 0.00 | 0.00 | 85 | 1015.9 |
| 20260904061354 | 17 | 200 | 0.0 | 4.8 | 0.00 | 0.00 | 0.00 | 85 | 1015.9 |
| 20260904061254 | 17 | 181 | 0.0 | 4.8 | 0.00 | 0.00 | 0.00 | 85 | 1015.9 |
| 20260904061226 | 17 | 188 | 0.0 | 4.8 | 0.00 | 0.00 | 0.00 | 85 | 1015.9 |
| 20260904061154 | 17 | 187 | 0.0 | 4.8 | 0.00 | 0.00 | 0.00 | 85 | 1015.8 |
| 20260904061054 | 17 | 196 | 0.0 | 4.8 | 0.00 | 0.00 | 0.00 | 85 | 1015.8 |
| 20260904060954 | 17 | 231 | 1.6 | 1.6 | 0.00 | 0.00 | 0.00 | 85 | 1015.8 |
| 20260904060854 | 17 | 195 | 0.0 | 1.6 | 0.00 | 0.00 | 0.00 | 85 | 1015.6 |
| 20260904060754 | 17 | 201 | 0.0 | 1.6 | 0.00 | 0.00 | 0.00 | 85 | 1015.7 |
| 20260904060727 | 17 | 208 | 0.0 | 1.6 | 0.00 | 0.00 | 0.00 | 85 | 1015.7 |
| 20260904060654 | 17 | 206 | 1.6 | 1.6 | 0.00 | 0.00 | 0.00 | 85 | 1015.8 |
| 20260904060555 | 17 | 191 | 0.0 | 1.6 | 0.00 | 0.00 | 0.00 | 85 | 1016.0 |
| 20260904060454 | 17 | 201 | 0.0 | 1.6 | 0.00 | 0.00 | 0.00 | 85 | 1015.8 |
| 20260904060354 | 17 | 212 | 1.6 | 1.6 | 0.00 | 0.00 | 0.00 | 85 | 1015.8 |
| 20260904060254 | 17 | 199 | 0.0 | 1.6 | 0.00 | 0.00 | 0.00 | 85 | 1015.7 |
| 20260904060226 | 17 | 200 | 0.0 | 1.6 | 0.00 | 0.00 | 0.00 | 85 | 1015.7 |
| 20260904060154 | 17 | 200 | 0.0 | 1.6 | 0.00 | 0.00 | 0.00 | 85 | 1015.7 |
| 20260904060053 | 17 | 193 | 0.0 | 1.6 | 0.00 | 0.00 | 0.00 | 85 | 1015.8 |
| 20260904055955 | 17 | 192 | 0.0 | 1.6 | 0.00 | 0.00 | 0.00 | 85 | 1015.8 |
| 20260904055854 | 17 | 195 | 0.0 | 1.6 | 0.00 | 0.00 | 0.00 | 85 | 1015.7 |
| 20260904055754 | 17 | 195 | 0.0 | 1.6 | 0.00 | 0.00 | 0.00 | 85 | 1015.8 |
| 20260904055726 | 17 | 196 | 0.0 | 1.6 | 0.00 | 0.00 | 0.00 | 85 | 1015.8 |
| 20260904055656 | 17 | 193 | 0.0 | 1.6 | 0.00 | 0.00 | 0.00 | 86 | 1015.9 |
| 20260904055554 | 17 | 199 | 0.0 | 1.6 | 0.00 | 0.00 | 0.00 | 86 | 1015.8 |
| 20260904055454 | 17 | 202 | 0.0 | 3.2 | 0.00 | 0.00 | 0.00 | 86 | 1016.0 |
| 20260904055354 | 17 | 191 | 0.0 | 3.2 | 0.00 | 0.00 | 0.00 | 86 | 1015.8 |
| 20260904055328 | 17 | 196 | 0.0 | 3.2 | 0.00 | 0.00 | 0.00 | 86 | 1015.9 |
| 20260904055315 | 17 | 201 | 0.0 | 3.2 | 0.00 | 0.00 | 0.00 | 86 | 1015.9 |
| 20260904055306 | 17 | 211 | 0.0 | 3.2 | 0.00 | 0.00 | 0.00 | 86 | 1015.8 |
| 20260904055251 | 17 | 188 | 0.0 | 3.2 | 0.00 | 0.00 | 0.00 | 86 | 1015.9 |
| 20260904055015 | 17 | 204 | 0.0 | 4.8 | 0.00 | 0.00 | 0.00 | 86 | 1015.7 |
| 20260904054726 | 17 | 196 | 0.0 | 4.8 | 0.00 | 0.00 | 0.00 | 86 | 1015.6 |
| 20260904054654 | 17 | 191 | 0.0 | 4.8 | 0.00 | 0.00 | 0.00 | 86 | 1015.8 |
| 20260904054554 | 17 | 196 | 0.0 | 4.8 | 0.00 | 0.00 | 0.00 | 86 | 1015.7 |
| 20260904054454 | 17 | 198 | 0.0 | 4.8 | 0.00 | 0.00 | 0.00 | 86 | 1015.5 |
| 20260904054354 | 17 | 202 | 0.0 | 6.4 | 0.00 | 0.00 | 0.00 | 86 | 1015.4 |
| 20260904054254 | 17 | 196 | 0.0 | 6.4 | 0.00 | 0.00 | 0.00 | 86 | 1015.6 |
| 20260904054226 | 17 | 203 | 0.0 | 6.4 | 0.00 | 0.00 | 0.00 | 86 | 1015.6 |
| 20260904054154 | 17 | 203 | 0.0 | 6.4 | 0.00 | 0.00 | 0.00 | 86 | 1015.6 |
| 20260904054054 | 17 | 203 | 0.0 | 6.4 | 0.00 | 0.00 | 0.00 | 86 | 1015.6 |
| 20260904053954 | 17 | 196 | 0.0 | 6.4 | 0.00 | 0.00 | 0.00 | 86 | 1015.5 |
| 20260904053938 | 17 | 195 | 0.0 | 11.3 | 0.00 | 0.00 | 0.00 | 86 | 1015.6 |
| 20260904053922 | 17 | 191 | 0.0 | 11.3 | 0.00 | 0.00 | 0.00 | 86 | 1015.5 |
| 20260904053907 | 17 | 205 | 0.0 | 11.3 | 0.00 | 0.00 | 0.00 | 86 | 1015.5 |
| 20260904053635 | 17 | 214 | 3.2 | 11.3 | 0.00 | 0.00 | 0.00 | 86 | 1015.4 |
| 20260904053627 | 17 | 196 | 0.0 | 11.3 | 0.00 | 0.00 | 0.00 | 86 | 1015.5 |
| 20260904053611 | 17 | 205 | 4.8 | 11.3 | 0.00 | 0.00 | 0.00 | 86 | 1015.4 |
| 20260904053555 | 17 | 209 | 4.8 | 11.3 | 0.00 | 0.00 | 0.00 | 86 | 1015.5 |
| 20260904053540 | 17 | 201 | 0.0 | 11.3 | 0.00 | 0.00 | 0.00 | 86 | 1015.4 |
| 20260904053314 | 17 | 200 | 3.2 | 11.3 | 0.00 | 0.00 | 0.00 | 86 | 1015.5 |
| 20260904052955 | 17 | 229 | 3.2 | 4.8 | 0.00 | 0.00 | 0.00 | 86 | 1015.5 |
| 20260904052854 | 17 | 207 | 0.0 | 6.4 | 0.00 | 0.00 | 0.00 | 86 | 1015.4 |
| 20260904052755 | 17 | 215 | 0.0 | 6.4 | 0.00 | 0.00 | 0.00 | 85 | 1015.6 |
| 20260904052725 | 17 | 206 | 0.0 | 6.4 | 0.00 | 0.00 | 0.00 | 85 | 1015.6 |
| 20260904052656 | 17 | 204 | 0.0 | 6.4 | 0.00 | 0.00 | 0.00 | 86 | 1015.5 |
| 20260904052554 | 17 | 204 | 0.0 | 6.4 | 0.00 | 0.00 | 0.00 | 85 | 1015.6 |
| 20260904052530 | 17 | 180 | 0.0 | 6.4 | 0.00 | 0.00 | 0.00 | 85 | 1015.6 |
| 20260904052514 | 17 | 207 | 0.0 | 6.4 | 0.00 | 0.00 | 0.00 | 85 | 1015.5 |
| 20260904052226 | 17 | 200 | 0.0 | 6.4 | 0.00 | 0.00 | 0.00 | 85 | 1015.5 |
| 20260904052154 | 17 | 198 | 0.0 | 6.4 | 0.00 | 0.00 | 0.00 | 85 | 1015.6 |
| 20260904052055 | 17 | 206 | 0.0 | 6.4 | 0.00 | 0.00 | 0.00 | 85 | 1015.7 |
| 20260904052027 | 17 | 208 | 0.0 | 3.2 | 0.00 | 0.00 | 0.00 | 85 | 1015.8 |
| 20260904052019 | 17 | 198 | 0.0 | 6.4 | 0.00 | 0.00 | 0.00 | 85 | 1015.7 |
| 20260904052002 | 17 | 200 | 0.0 | 3.2 | 0.00 | 0.00 | 0.00 | 85 | 1015.6 |
| 20260904051945 | 17 | 204 | 0.0 | 3.2 | 0.00 | 0.00 | 0.00 | 85 | 1015.8 |
| 20260904051655 | 17 | 206 | 0.0 | 3.2 | 0.00 | 0.00 | 0.00 | 85 | 1015.7 |
| 20260904051633 | 17 | 205 | 0.0 | 3.2 | 0.00 | 0.00 | 0.00 | 86 | 1015.6 |
| 20260904051624 | 17 | 198 | 0.0 | 3.2 | 0.00 | 0.00 | 0.00 | 85 | 1015.4 |
| 20260904051609 | 17 | 208 | 1.6 | 3.2 | 0.00 | 0.00 | 0.00 | 85 | 1015.6 |
| 20260904051552 | 17 | 210 | 0.0 | 3.2 | 0.00 | 0.00 | 0.00 | 85 | 1015.5 |
| 20260904051536 | 17 | 234 | 0.0 | 3.2 | 0.00 | 0.00 | 0.00 | 85 | 1015.7 |
| 20260904051523 | 17 | 204 | 0.0 | 3.2 | 0.00 | 0.00 | 0.00 | 85 | 1015.7 |
| 20260904051514 | 17 | 204 | 0.0 | 3.2 | 0.00 | 0.00 | 0.00 | 85 | 1015.6 |
| 20260904051459 | 17 | 207 | 1.6 | 3.2 | 0.00 | 0.00 | 0.00 | 85 | 1015.5 |
| 20260904051223 | 17 | 210 | 3.2 | 3.2 | 0.00 | 0.00 | 0.00 | 85 | 1015.5 |
| 20260904051207 | 17 | 197 | 0.0 | 3.2 | 0.00 | 0.00 | 0.00 | 85 | 1015.5 |
| 20260904051153 | 17 | 205 | 0.0 | 3.2 | 0.00 | 0.00 | 0.00 | 85 | 1015.5 |
| 20260904050923 | 17 | 201 | 0.0 | 1.6 | 0.00 | 0.00 | 0.00 | 85 | 1015.5 |
| 20260904050907 | 17 | 197 | 0.0 | 1.6 | 0.00 | 0.00 | 0.00 | 86 | 1015.8 |
| 20260904050852 | 17 | 201 | 0.0 | 1.6 | 0.00 | 0.00 | 0.00 | 86 | 1015.6 |
| 20260904050351 | 17 | 204 | 0.0 | 3.2 | 0.00 | 0.00 | 0.00 | 86 | 1015.6 |
| 20260904050336 | 17 | 205 | 0.0 | 3.2 | 0.00 | 0.00 | 0.00 | 86 | 1015.6 |
| 20260904045754 | 17 | 205 | 0.0 | 6.4 | 0.00 | 0.00 | 0.00 | 86 | 1015.5 |
| 20260904045727 | 17 | 204 | 0.0 | 6.4 | 0.00 | 0.00 | 0.00 | 86 | 1015.5 |
| 20260904045656 | 17 | 167 | 0.0 | 6.4 | 0.00 | 0.00 | 0.00 | 86 | 1015.4 |
| 20260904045555 | 17 | 184 | 0.0 | 6.4 | 0.00 | 0.00 | 0.00 | 86 | 1015.8 |
| 20260904045455 | 17 | 197 | 0.0 | 6.4 | 0.00 | 0.00 | 0.00 | 86 | 1015.6 |
| 20260904045437 | 17 | 206 | 0.0 | 6.4 | 0.00 | 0.00 | 0.00 | 86 | 1015.6 |
| 20260904045421 | 17 | 200 | 0.0 | 6.4 | 0.00 | 0.00 | 0.00 | 86 | 1015.6 |
| 20260904045408 | 17 | 205 | 0.0 | 6.4 | 0.00 | 0.00 | 0.00 | 86 | 1015.6 |
| 20260904045055 | 17 | 220 | 0.0 | 6.4 | 0.00 | 0.00 | 0.00 | 86 | 1015.4 |
| 20260904044956 | 17 | 212 | 0.0 | 6.4 | 0.00 | 0.00 | 0.00 | 86 | 1015.5 |
| 20260904044941 | 17 | 205 | 1.6 | 6.4 | 0.00 | 0.00 | 0.00 | 86 | 1015.5 |
| 20260904044925 | 17 | 222 | 3.2 | 4.8 | 0.00 | 0.00 | 0.00 | 86 | 1015.7 |
| 20260904044909 | 17 | 235 | 1.6 | 4.8 | 0.00 | 0.00 | 0.00 | 86 | 1015.7 |
| 20260904044554 | 17 | 212 | 3.2 | 4.8 | 0.00 | 0.00 | 0.00 | 86 | 1015.7 |
| 20260904044454 | 17 | 204 | 0.0 | 3.2 | 0.00 | 0.00 | 0.00 | 86 | 1015.7 |
| 20260904044355 | 17 | 206 | 0.0 | 3.2 | 0.00 | 0.00 | 0.00 | 86 | 1015.7 |
| 20260904044254 | 17 | 206 | 0.0 | 3.2 | 0.00 | 0.00 | 0.00 | 86 | 1016.0 |
| 20260904044226 | 17 | 207 | 0.0 | 3.2 | 0.00 | 0.00 | 0.00 | 86 | 1016.0 |
| 20260904044155 | 17 | 205 | 0.0 | 3.2 | 0.00 | 0.00 | 0.00 | 86 | 1016.0 |
| 20260904044054 | 17 | 194 | 0.0 | 3.2 | 0.00 | 0.00 | 0.00 | 86 | 1016.0 |
| 20260904043955 | 17 | 202 | 0.0 | 1.6 | 0.00 | 0.00 | 0.00 | 86 | 1016.1 |
| 20260904043854 | 17 | 195 | 0.0 | 1.6 | 0.00 | 0.00 | 0.00 | 86 | 1015.9 |
| 20260904043832 | 16 | 195 | 1.6 | 3.2 | 0.00 | 0.00 | 0.00 | 86 | 1015.9 |
| 20260904043828 | 16 | 228 | 0.0 | 3.2 | 0.00 | 0.00 | 0.00 | 86 | 1015.5 |
| 20260904043805 | 16 | 207 | 0.0 | 1.6 | 0.00 | 0.00 | 0.00 | 86 | 1016.1 |
| 20260904043756 | 16 | 199 | 0.0 | 1.6 | 0.00 | 0.00 | 0.00 | 86 | 1016.0 |
| 20260904043740 | 16 | 197 | 0.0 | 1.6 | 0.00 | 0.00 | 0.00 | 86 | 1016.0 |
| 20260904043725 | 16 | 281 | 0.0 | 3.2 | 0.00 | 0.00 | 0.00 | 86 | 1015.8 |
| 20260904043708 | 16 | 205 | 0.0 | 3.2 | 0.00 | 0.00 | 0.00 | 86 | 1016.0 |
| 20260904043652 | 16 | 195 | 1.6 | 3.2 | 0.00 | 0.00 | 0.00 | 86 | 1015.9 |
| 20260904043425 | 16 | 204 | 0.0 | 3.2 | 0.00 | 0.00 | 0.00 | 86 | 1015.8 |
| 20260904043149 | 16 | 200 | 0.0 | 3.2 | 0.00 | 0.00 | 0.00 | 86 | 1015.5 |
| 20260904043133 | 16 | 195 | 0.0 | 3.2 | 0.00 | 0.00 | 0.00 | 86 | 1015.7 |
| 20260904043118 | 16 | 197 | 0.0 | 3.2 | 0.00 | 0.00 | 0.00 | 86 | 1015.5 |
| 20260904042849 | 16 | 204 | 0.0 | 3.2 | 0.00 | 0.00 | 0.00 | 86 | 1015.8 |
| 20260904042614 | 16 | 186 | 0.0 | 3.2 | 0.00 | 0.00 | 0.00 | 86 | 1015.7 |
| 20260904042254 | 16 | 205 | 1.6 | 3.2 | 0.00 | 0.00 | 0.00 | 86 | 1015.7 |
| 20260904042227 | 16 | 204 | 0.0 | 3.2 | 0.00 | 0.00 | 0.00 | 86 | 1015.7 |
| 20260904042153 | 16 | 205 | 0.0 | 3.2 | 0.00 | 0.00 | 0.00 | 86 | 1015.7 |
| 20260904042054 | 16 | 204 | 0.0 | 3.2 | 0.00 | 0.00 | 0.00 | 86 | 1015.7 |
| 20260904042027 | 16 | 206 | 0.0 | 3.2 | 0.00 | 0.00 | 0.00 | 86 | 1015.5 |
| 20260904042019 | 16 | 207 | 0.0 | 3.2 | 0.00 | 0.00 | 0.00 | 86 | 1015.6 |
| 20260904042003 | 16 | 212 | 0.0 | 3.2 | 0.00 | 0.00 | 0.00 | 86 | 1015.7 |
| 20260904041948 | 16 | 203 | 0.0 | 3.2 | 0.00 | 0.00 | 0.00 | 86 | 1015.5 |
| 20260904041654 | 16 | 207 | 0.0 | 3.2 | 0.00 | 0.00 | 0.00 | 86 | 1015.6 |
| 20260904041554 | 16 | 206 | 0.0 | 3.2 | 0.00 | 0.00 | 0.00 | 86 | 1015.6 |
| 20260904041454 | 16 | 199 | 0.0 | 3.2 | 0.00 | 0.00 | 0.00 | 86 | 1015.7 |
| 20260904041354 | 16 | 207 | 0.0 | 3.2 | 0.00 | 0.00 | 0.00 | 86 | 1015.8 |
| 20260904041338 | 16 | 199 | 0.0 | 3.2 | 0.00 | 0.00 | 0.00 | 86 | 1015.6 |
| 20260904041324 | 16 | 210 | 0.0 | 3.2 | 0.00 | 0.00 | 0.00 | 86 | 1015.6 |
| 20260904041315 | 16 | 196 | 0.0 | 3.2 | 0.00 | 0.00 | 0.00 | 86 | 1015.5 |
| 20260904041030 | 16 | 206 | 0.0 | 4.8 | 0.00 | 0.00 | 0.00 | 86 | 1015.6 |
| 20260904041014 | 16 | 196 | 0.0 | 4.8 | 0.00 | 0.00 | 0.00 | 86 | 1015.5 |
| 20260904040726 | 16 | 209 | 1.6 | 4.8 | 0.00 | 0.00 | 0.00 | 86 | 1015.7 |
| 20260904040654 | 16 | 196 | 0.0 | 4.8 | 0.00 | 0.00 | 0.00 | 86 | 1015.5 |
| 20260904040554 | 16 | 206 | 0.0 | 4.8 | 0.00 | 0.00 | 0.00 | 86 | 1015.5 |
| 20260904040530 | 16 | 203 | 0.0 | 4.8 | 0.00 | 0.00 | 0.00 | 86 | 1015.5 |
| 20260904040513 | 16 | 205 | 0.0 | 4.8 | 0.00 | 0.00 | 0.00 | 86 | 1015.4 |
| 20260904040227 | 16 | 204 | 0.0 | 4.8 | 0.00 | 0.00 | 0.00 | 86 | 1015.6 |
| 20260904040153 | 16 | 231 | 0.0 | 1.6 | 0.00 | 0.00 | 0.00 | 86 | 1015.6 |
| 20260904040055 | 16 | 205 | 0.0 | 1.6 | 0.00 | 0.00 | 0.00 | 86 | 1015.6 |
| 20260904035953 | 16 | 200 | 0.0 | 1.6 | 0.00 | 0.00 | 0.00 | 86 | 1015.5 |
| 20260904035855 | 16 | 201 | 0.0 | 3.2 | 0.00 | 0.00 | 0.00 | 86 | 1015.6 |
| 20260904035727 | 16 | 209 | 0.0 | 3.2 | 0.00 | 0.00 | 0.00 | 86 | 1015.8 |
| 20260904035656 | 16 | 207 | 0.0 | 3.2 | 0.00 | 0.00 | 0.00 | 86 | 1015.8 |
| 20260904035616 | 16 | 208 | 0.0 | 3.2 | 0.00 | 0.00 | 0.00 | 85 | 1015.8 |
| 20260904035607 | 16 | 209 | 0.0 | 3.2 | 0.00 | 0.00 | 0.00 | 86 | 1015.6 |
| 20260904035552 | 16 | 206 | 0.0 | 3.2 | 0.00 | 0.00 | 0.00 | 86 | 1015.7 |
| 20260904035536 | 16 | 201 | 0.0 | 3.2 | 0.00 | 0.00 | 0.00 | 85 | 1015.6 |
| 20260904035257 | 16 | 231 | 0.0 | 3.2 | 0.00 | 0.00 | 0.00 | 85 | 1015.8 |
| 20260904035248 | 16 | 205 | 0.0 | 3.2 | 0.00 | 0.00 | 0.00 | 85 | 1016.0 |
| 20260904035221 | 16 | 205 | 0.0 | 3.2 | 0.00 | 0.00 | 0.00 | 85 | 1015.8 |
| 20260904034946 | 16 | 205 | 0.0 | 3.2 | 0.00 | 0.00 | 0.00 | 85 | 1015.8 |
| 20260904034654 | 16 | 207 | 0.0 | 3.2 | 0.00 | 0.00 | 0.00 | 85 | 1015.8 |
| 20260904034553 | 16 | 202 | 0.0 | 1.6 | 0.00 | 0.00 | 0.00 | 85 | 1015.8 |
| 20260904034454 | 16 | 207 | 0.0 | 1.6 | 0.00 | 0.00 | 0.00 | 85 | 1015.7 |
| 20260904034354 | 16 | 197 | 0.0 | 1.6 | 0.00 | 0.00 | 0.00 | 85 | 1016.0 |
| 20260904034326 | 16 | 207 | 0.0 | 3.2 | 0.00 | 0.00 | 0.00 | 85 | 1015.7 |
| 20260904034318 | 16 | 211 | 0.0 | 1.6 | 0.00 | 0.00 | 0.00 | 85 | 1015.6 |
| 20260904034305 | 16 | 200 | 0.0 | 1.6 | 0.00 | 0.00 | 0.00 | 85 | 1015.6 |
| 20260904034256 | 16 | 204 | 0.0 | 1.6 | 0.00 | 0.00 | 0.00 | 85 | 1015.9 |
| 20260904034240 | 16 | 203 | 0.0 | 1.6 | 0.00 | 0.00 | 0.00 | 85 | 1015.9 |
| 20260904034225 | 16 | 206 | 0.0 | 1.6 | 0.00 | 0.00 | 0.00 | 85 | 1015.9 |
| 20260904034211 | 16 | 195 | 0.0 | 1.6 | 0.00 | 0.00 | 0.00 | 85 | 1016.1 |
| 20260904033935 | 16 | 207 | 0.0 | 6.4 | 0.00 | 0.00 | 0.00 | 85 | 1016.1 |
| 20260904033926 | 16 | 206 | 0.0 | 9.7 | 0.00 | 0.00 | 0.00 | 85 | 1015.9 |
| 20260904033651 | 16 | 206 | 0.0 | 9.7 | 0.00 | 0.00 | 0.00 | 85 | 1016.1 |
| 20260904033635 | 16 | 205 | 0.0 | 9.7 | 0.00 | 0.00 | 0.00 | 85 | 1015.7 |
| 20260904033620 | 16 | 200 | 0.0 | 9.7 | 0.00 | 0.00 | 0.00 | 85 | 1015.7 |
| 20260904033606 | 16 | 202 | 0.0 | 9.7 | 0.00 | 0.00 | 0.00 | 85 | 1015.7 |
| 20260904033557 | 16 | 210 | 0.0 | 9.7 | 0.00 | 0.00 | 0.00 | 85 | 1015.7 |
| 20260904033541 | 16 | 208 | 0.0 | 9.7 | 0.00 | 0.00 | 0.00 | 85 | 1015.7 |
| 20260904033525 | 16 | 202 | 0.0 | 9.7 | 0.00 | 0.00 | 0.00 | 85 | 1015.8 |
| 20260904033248 | 16 | 215 | 4.8 | 9.7 | 0.00 | 0.00 | 0.00 | 85 | 1015.7 |
| 20260904032454 | 16 | 205 | 0.0 | 1.6 | 0.00 | 0.00 | 0.00 | 85 | 1016.0 |
| 20260904032432 | 16 | 205 | 0.0 | 1.6 | 0.00 | 0.00 | 0.00 | 85 | 1015.8 |
| 20260904032416 | 16 | 200 | 0.0 | 1.6 | 0.00 | 0.00 | 0.00 | 85 | 1015.9 |
| 20260904032403 | 16 | 196 | 0.0 | 1.6 | 0.00 | 0.00 | 0.00 | 85 | 1015.9 |
| 20260904032355 | 16 | 203 | 0.0 | 1.6 | 0.00 | 0.00 | 0.00 | 85 | 1015.8 |
| 20260904032114 | 16 | 200 | 0.0 | 1.6 | 0.00 | 0.00 | 0.00 | 85 | 1016.0 |
| 20260904031754 | 16 | 204 | 0.0 | 1.6 | 0.00 | 0.00 | 0.00 | 85 | 1015.9 |
| 20260904031739 | 16 | 203 | 0.0 | 1.6 | 0.00 | 0.00 | 0.00 | 85 | 1015.9 |
| 20260904031730 | 16 | 206 | 0.0 | 1.6 | 0.00 | 0.00 | 0.00 | 85 | 1015.7 |
| 20260904031714 | 16 | 201 | 0.0 | 1.6 | 0.00 | 0.00 | 0.00 | 85 | 1015.9 |
| 20260904031425 | 16 | 205 | 0.0 | 1.6 | 0.00 | 0.00 | 0.00 | 85 | 1015.6 |
| 20260904031357 | 16 | 206 | 0.0 | 1.6 | 0.00 | 0.00 | 0.00 | 85 | 1015.6 |
| 20260904031348 | 16 | 204 | 0.0 | 1.6 | 0.00 | 0.00 | 0.00 | 85 | 1015.7 |
| 20260904031114 | 17 | 207 | 0.0 | 1.6 | 0.00 | 0.00 | 0.00 | 85 | 1015.7 |
| 20260904030726 | 17 | 202 | 0.0 | 0.0 | 0.00 | 0.00 | 0.00 | 85 | 1015.8 |
| 20260904030654 | 17 | 202 | 0.0 | 0.0 | 0.00 | 0.00 | 0.00 | 85 | 1015.8 |
| 20260904030553 | 17 | 202 | 0.0 | 0.0 | 0.00 | 0.00 | 0.00 | 85 | 1015.6 |
| 20260904030452 | 17 | 202 | 0.0 | 0.0 | 0.00 | 0.00 | 0.00 | 84 | 1015.8 |
| 20260904030353 | 17 | 202 | 0.0 | 0.0 | 0.00 | 0.00 | 0.00 | 84 | 1015.8 |
| 20260904030304 | 17 | 202 | 0.0 | 0.0 | 0.00 | 0.00 | 0.00 | 84 | 1016.0 |
| 20260904030255 | 17 | 202 | 0.0 | 0.0 | 0.00 | 0.00 | 0.00 | 84 | 1016.0 |
| 20260904030229 | 17 | 202 | 0.0 | 0.0 | 0.00 | 0.00 | 0.00 | 84 | 1015.8 |
| 20260904030213 | 17 | 202 | 0.0 | 0.0 | 0.00 | 0.00 | 0.00 | 84 | 1015.9 |
| 20260904025938 | 17 | 202 | 0.0 | 0.0 | 0.00 | 0.00 | 0.00 | 84 | 1015.8 |
| 20260904025709 | 17 | 203 | 0.0 | 0.0 | 0.00 | 0.00 | 0.00 | 84 | 1015.8 |
| 20260904025348 | 17 | 203 | 0.0 | 0.0 | 0.00 | 0.00 | 0.00 | 84 | 1015.8 |
| 20260904025221 | 17 | 202 | 0.0 | 0.0 | 0.00 | 0.00 | 0.00 | 84 | 1015.9 |
| 20260904025150 | 17 | 202 | 0.0 | 0.0 | 0.00 | 0.00 | 0.00 | 84 | 1015.8 |
| 20260904025049 | 17 | 202 | 0.0 | 0.0 | 0.00 | 0.00 | 0.00 | 84 | 1015.8 |
| 20260904024950 | 17 | 203 | 0.0 | 0.0 | 0.00 | 0.00 | 0.00 | 84 | 1015.8 |
| 20260904024935 | 17 | 203 | 0.0 | 0.0 | 0.00 | 0.00 | 0.00 | 84 | 1015.8 |
| 20260904024903 | 17 | 202 | 0.0 | 0.0 | 0.00 | 0.00 | 0.00 | 84 | 1015.8 |
| 20260904024549 | 17 | 203 | 0.0 | 0.0 | 0.00 | 0.00 | 0.00 | 83 | 1015.8 |
| 20260904024501 | 17 | 203 | 0.0 | 0.0 | 0.00 | 0.00 | 0.00 | 83 | 1015.8 |
| 20260904024446 | 17 | 203 | 0.0 | 0.0 | 0.00 | 0.00 | 0.00 | 83 | 1015.7 |
| 20260904024416 | 17 | 203 | 0.0 | 0.0 | 0.00 | 0.00 | 0.00 | 83 | 1015.9 |
| 20260904024049 | 17 | 202 | 0.0 | 0.0 | 0.00 | 0.00 | 0.00 | 83 | 1015.9 |
| 20260904023950 | 17 | 203 | 0.0 | 0.0 | 0.00 | 0.00 | 0.00 | 83 | 1016.0 |
| 20260904023850 | 17 | 203 | 0.0 | 0.0 | 0.00 | 0.00 | 0.00 | 83 | 1015.9 |
| 20260904023721 | 17 | 203 | 0.0 | 0.0 | 0.00 | 0.00 | 0.00 | 83 | 1015.9 |
| 20260904023650 | 17 | 203 | 0.0 | 0.0 | 0.00 | 0.00 | 0.00 | 83 | 1015.9 |
| 20260904023609 | 17 | 201 | 0.0 | 0.0 | 0.00 | 0.00 | 0.00 | 83 | 1015.8 |
| 20260904023602 | 17 | 203 | 0.0 | 0.0 | 0.00 | 0.00 | 0.00 | 83 | 1015.9 |
| 20260904023546 | 17 | 203 | 0.0 | 0.0 | 0.00 | 0.00 | 0.00 | 83 | 1015.9 |
| 20260904023531 | 17 | 201 | 0.0 | 0.0 | 0.00 | 0.00 | 0.00 | 83 | 1015.9 |
| 20260904023502 | 17 | 201 | 0.0 | 0.0 | 0.00 | 0.00 | 0.00 | 83 | 1015.9 |
| 20260904023453 | 17 | 201 | 0.0 | 0.0 | 0.00 | 0.00 | 0.00 | 83 | 1015.9 |
| 20260904023436 | 17 | 201 | 0.0 | 0.0 | 0.00 | 0.00 | 0.00 | 83 | 1015.8 |
| 20260904023421 | 17 | 201 | 0.0 | 0.0 | 0.00 | 0.00 | 0.00 | 83 | 1015.8 |
| 20260904022649 | 17 | 202 | 0.0 | 0.0 | 0.00 | 0.00 | 0.00 | 83 | 1016.0 |
| 20260904022549 | 17 | 202 | 0.0 | 0.0 | 0.00 | 0.00 | 0.00 | 83 | 1016.1 |
| 20260904022448 | 17 | 204 | 0.0 | 0.0 | 0.00 | 0.00 | 0.00 | 83 | 1015.9 |
| 20260904022349 | 17 | 200 | 0.0 | 0.0 | 0.00 | 0.00 | 0.00 | 83 | 1015.7 |
| 20260904022221 | 17 | 201 | 0.0 | 0.0 | 0.00 | 0.00 | 0.00 | 83 | 1015.8 |
| 20260904022136 | 17 | 203 | 0.0 | 0.0 | 0.00 | 0.00 | 0.00 | 83 | 1015.7 |
| 20260904022117 | 17 | 197 | 0.0 | 1.6 | 0.00 | 0.00 | 0.00 | 82 | 1015.9 |
| 20260904022109 | 17 | 204 | 0.0 | 0.0 | 0.00 | 0.00 | 0.00 | 83 | 1016.0 |
| 20260904022053 | 17 | 200 | 0.0 | 0.0 | 0.00 | 0.00 | 0.00 | 82 | 1015.8 |
| 20260904022039 | 17 | 200 | 0.0 | 1.6 | 0.00 | 0.00 | 0.00 | 82 | 1016.1 |
| 20260904022023 | 17 | 197 | 0.0 | 1.6 | 0.00 | 0.00 | 0.00 | 82 | 1015.9 |
| 20260904021757 | 17 | 198 | 0.0 | 1.6 | 0.00 | 0.00 | 0.00 | 82 | 1015.7 |
| 20260904021513 | 17 | 194 | 0.0 | 1.6 | 0.00 | 0.00 | 0.00 | 82 | 1015.9 |
| 20260904021457 | 17 | 200 | 0.0 | 1.6 | 0.00 | 0.00 | 0.00 | 82 | 1015.8 |
| 20260904021430 | 17 | 200 | 0.0 | 1.6 | 0.00 | 0.00 | 0.00 | 82 | 1015.8 |
| 20260904021159 | 17 | 201 | 0.0 | 1.6 | 0.00 | 0.00 | 0.00 | 82 | 1015.9 |
| 20260904020838 | 17 | 199 | 0.0 | 1.6 | 0.00 | 0.00 | 0.00 | 82 | 1016.1 |
| 20260904020722 | 17 | 200 | 0.0 | 1.6 | 0.00 | 0.00 | 0.00 | 82 | 1016.0 |
| 20260904020651 | 17 | 191 | 0.0 | 1.6 | 0.00 | 0.00 | 0.00 | 82 | 1015.9 |
| 20260904020636 | 17 | 203 | 0.0 | 0.0 | 0.00 | 0.00 | 0.00 | 82 | 1015.6 |
| 20260904020622 | 17 | 203 | 0.0 | 0.0 | 0.00 | 0.00 | 0.00 | 82 | 1016.0 |
| 20260904020605 | 17 | 203 | 0.0 | 0.0 | 0.00 | 0.00 | 0.00 | 82 | 1015.8 |
| 20260904020543 | 17 | 200 | 0.0 | 0.0 | 0.00 | 0.00 | 0.00 | 82 | 1015.9 |
| 20260904020527 | 17 | 201 | 0.0 | 0.0 | 0.00 | 0.00 | 0.00 | 82 | 1016.0 |
| 20260904020033 | 17 | 203 | 0.0 | 0.0 | 0.00 | 0.00 | 0.00 | 82 | 1016.1 |
| 20260904020009 | 17 | 203 | 0.0 | 0.0 | 0.00 | 0.00 | 0.00 | 82 | 1015.7 |
| 20260904015940 | 17 | 204 | 0.0 | 0.0 | 0.00 | 0.00 | 0.00 | 82 | 1015.9 |
| 20260904015925 | 17 | 205 | 0.0 | 0.0 | 0.00 | 0.00 | 0.00 | 82 | 1015.8 |
| 20260904015909 | 17 | 205 | 0.0 | 0.0 | 0.00 | 0.00 | 0.00 | 82 | 1015.7 |
| 20260904015854 | 17 | 203 | 0.0 | 0.0 | 0.00 | 0.00 | 0.00 | 82 | 1015.8 |
| 20260904015627 | 17 | 200 | 0.0 | 0.0 | 0.00 | 0.00 | 0.00 | 82 | 1015.9 |
| 20260904015611 | 17 | 199 | 0.0 | 0.0 | 0.00 | 0.00 | 0.00 | 82 | 1016.0 |
| 20260904014846 | 17 | 198 | 0.0 | 0.0 | 0.00 | 0.00 | 0.00 | 82 | 1015.7 |
| 20260904014525 | 17 | 199 | 0.0 | 0.0 | 0.00 | 0.00 | 0.00 | 82 | 1015.8 |
| 20260904014425 | 17 | 195 | 0.0 | 0.0 | 0.00 | 0.00 | 0.00 | 81 | 1015.7 |
| 20260904014407 | 17 | 200 | 0.0 | 0.0 | 0.00 | 0.00 | 0.00 | 82 | 1015.8 |
| 20260904014346 | 17 | 200 | 0.0 | 0.0 | 0.00 | 0.00 | 0.00 | 82 | 1015.8 |
| 20260904014026 | 17 | 199 | 0.0 | 0.0 | 0.00 | 0.00 | 0.00 | 82 | 1015.9 |
| 20260904013926 | 17 | 199 | 0.0 | 0.0 | 0.00 | 0.00 | 0.00 | 82 | 1016.0 |
| 20260904013909 | 17 | 199 | 0.0 | 0.0 | 0.00 | 0.00 | 0.00 | 82 | 1015.8 |
| 20260904013843 | 17 | 199 | 0.0 | 0.0 | 0.00 | 0.00 | 0.00 | 82 | 1016.0 |
| 20260904013525 | 17 | 193 | 0.0 | 0.0 | 0.00 | 0.00 | 0.00 | 82 | 1015.9 |
| 20260904013430 | 17 | 203 | 0.0 | 0.0 | 0.00 | 0.00 | 0.00 | 82 | 1016.0 |
| 20260904013325 | 17 | 203 | 0.0 | 0.0 | 0.00 | 0.00 | 0.00 | 82 | 1015.8 |
| 20260904013209 | 17 | 203 | 0.0 | 3.2 | 0.00 | 0.00 | 0.00 | 82 | 1016.0 |
| 20260904013126 | 17 | 203 | 0.0 | 3.2 | 0.00 | 0.00 | 0.00 | 82 | 1015.7 |
| 20260904013025 | 17 | 203 | 0.0 | 3.2 | 0.00 | 0.00 | 0.00 | 82 | 1016.1 |
| 20260904012924 | 17 | 203 | 0.0 | 3.2 | 0.00 | 0.00 | 0.00 | 82 | 1015.8 |
| 20260904012826 | 17 | 203 | 0.0 | 3.2 | 0.00 | 0.00 | 0.00 | 82 | 1016.0 |
| 20260904012710 | 17 | 203 | 0.0 | 3.2 | 0.00 | 0.00 | 0.00 | 82 | 1015.7 |
| 20260904012625 | 17 | 203 | 0.0 | 3.2 | 0.00 | 0.00 | 0.00 | 82 | 1015.9 |
| 20260904012525 | 17 | 204 | 0.0 | 3.2 | 0.00 | 0.00 | 0.00 | 82 | 1015.8 |
| 20260904012425 | 17 | 205 | 0.0 | 3.2 | 0.00 | 0.00 | 0.00 | 82 | 1016.0 |
| 20260904012325 | 17 | 205 | 0.0 | 3.2 | 0.00 | 0.00 | 0.00 | 82 | 1015.8 |
| 20260904012210 | 17 | 201 | 0.0 | 0.0 | 0.00 | 0.00 | 0.00 | 82 | 1016.0 |
| 20260904012125 | 17 | 201 | 0.0 | 0.0 | 0.00 | 0.00 | 0.00 | 82 | 1015.9 |
| 20260904012101 | 17 | 201 | 0.0 | 0.0 | 0.00 | 0.00 | 0.00 | 82 | 1016.0 |
| 20260904012046 | 17 | 202 | 0.0 | 0.0 | 0.00 | 0.00 | 0.00 | 82 | 1016.1 |
| 20260904011709 | 17 | 204 | 0.0 | 0.0 | 0.00 | 0.00 | 0.00 | 82 | 1016.2 |
| 20260904011628 | 17 | 204 | 0.0 | 0.0 | 0.00 | 0.00 | 0.00 | 82 | 1015.9 |
| 20260904011613 | 17 | 204 | 0.0 | 0.0 | 0.00 | 0.00 | 0.00 | 82 | 1015.8 |
| 20260904011557 | 17 | 204 | 0.0 | 0.0 | 0.00 | 0.00 | 0.00 | 82 | 1016.2 |
| 20260904011310 | 17 | 203 | 0.0 | 0.0 | 0.00 | 0.00 | 0.00 | 82 | 1015.9 |
| 20260904011246 | 17 | 203 | 0.0 | 0.0 | 0.00 | 0.00 | 0.00 | 82 | 1015.9 |
| 20260904010925 | 17 | 203 | 0.0 | 0.0 | 0.00 | 0.00 | 0.00 | 82 | 1016.0 |
| 20260904010843 | 17 | 203 | 0.0 | 0.0 | 0.00 | 0.00 | 0.00 | 82 | 1016.0 |
| 20260904010814 | 17 | 203 | 0.0 | 0.0 | 0.00 | 0.00 | 0.00 | 82 | 1016.0 |
| 20260904010803 | 17 | 203 | 0.0 | 0.0 | 0.00 | 0.00 | 0.00 | 82 | 1015.9 |
| 20260904010747 | 17 | 203 | 0.0 | 0.0 | 0.00 | 0.00 | 0.00 | 82 | 1015.9 |
| 20260904010732 | 17 | 203 | 0.0 | 0.0 | 0.00 | 0.00 | 0.00 | 82 | 1015.9 |
| 20260904010716 | 17 | 203 | 0.0 | 0.0 | 0.00 | 0.00 | 0.00 | 82 | 1015.8 |
| 20260904010443 | 17 | 203 | 0.0 | 0.0 | 0.00 | 0.00 | 0.00 | 82 | 1016.0 |
| 20260904010434 | 17 | 203 | 0.0 | 0.0 | 0.00 | 0.00 | 0.00 | 82 | 1016.0 |
| 20260904010201 | 17 | 203 | 0.0 | 0.0 | 0.00 | 0.00 | 0.00 | 82 | 1016.0 |
| 20260904005713 | 17 | 203 | 0.0 | 0.0 | 0.00 | 0.00 | 0.00 | 82 | 1016.0 |
| 20260904005612 | 17 | 203 | 0.0 | 0.0 | 0.00 | 0.00 | 0.00 | 82 | 1016.1 |
| 20260904005513 | 17 | 203 | 0.0 | 0.0 | 0.00 | 0.00 | 0.00 | 82 | 1015.9 |
| 20260904005413 | 17 | 203 | 0.0 | 0.0 | 0.00 | 0.00 | 0.00 | 82 | 1016.1 |
| 20260904005314 | 17 | 203 | 0.0 | 0.0 | 0.00 | 0.00 | 0.00 | 82 | 1016.0 |
| 20260904005248 | 17 | 203 | 0.0 | 0.0 | 0.00 | 0.00 | 0.00 | 82 | 1015.7 |
| 20260904005231 | 17 | 203 | 0.0 | 0.0 | 0.00 | 0.00 | 0.00 | 82 | 1016.2 |
| 20260904005214 | 17 | 203 | 0.0 | 0.0 | 0.00 | 0.00 | 0.00 | 82 | 1015.8 |
| 20260904004939 | 17 | 203 | 0.0 | 0.0 | 0.00 | 0.00 | 0.00 | 82 | 1015.7 |
| 20260904004712 | 17 | 203 | 0.0 | 0.0 | 0.00 | 0.00 | 0.00 | 82 | 1015.8 |
| 20260904004355 | 17 | 203 | 0.0 | 0.0 | 0.00 | 0.00 | 0.00 | 82 | 1016.1 |
| 20260904004238 | 17 | 203 | 0.0 | 0.0 | 0.00 | 0.00 | 0.00 | 82 | 1016.1 |
| 20260904004154 | 17 | 203 | 0.0 | 0.0 | 0.00 | 0.00 | 0.00 | 82 | 1016.1 |
| 20260904004054 | 17 | 203 | 0.0 | 0.0 | 0.00 | 0.00 | 0.00 | 82 | 1016.0 |
| 20260904003954 | 17 | 203 | 0.0 | 0.0 | 0.00 | 0.00 | 0.00 | 82 | 1015.8 |
| 20260904003855 | 17 | 203 | 0.0 | 0.0 | 0.00 | 0.00 | 0.00 | 82 | 1016.0 |
| 20260904003738 | 17 | 203 | 0.0 | 0.0 | 0.00 | 0.00 | 0.00 | 82 | 1016.1 |
| 20260904003655 | 17 | 203 | 0.0 | 0.0 | 0.00 | 0.00 | 0.00 | 82 | 1016.1 |
| 20260904003555 | 17 | 203 | 0.0 | 0.0 | 0.00 | 0.00 | 0.00 | 82 | 1016.1 |
| 20260904003455 | 17 | 203 | 0.0 | 0.0 | 0.00 | 0.00 | 0.00 | 82 | 1016.0 |
| 20260904003354 | 17 | 203 | 0.0 | 0.0 | 0.00 | 0.00 | 0.00 | 82 | 1016.0 |
| 20260904003238 | 17 | 203 | 0.0 | 0.0 | 0.00 | 0.00 | 0.00 | 82 | 1016.2 |
| 20260904003155 | 17 | 203 | 0.0 | 0.0 | 0.00 | 0.00 | 0.00 | 82 | 1016.1 |
| 20260904003053 | 17 | 203 | 0.0 | 0.0 | 0.00 | 0.00 | 0.00 | 82 | 1016.0 |
| 20260904002955 | 17 | 203 | 0.0 | 0.0 | 0.00 | 0.00 | 0.00 | 82 | 1016.3 |
| 20260904002856 | 17 | 202 | 0.0 | 0.0 | 0.00 | 0.00 | 0.00 | 82 | 1016.1 |
| 20260904002738 | 17 | 203 | 0.0 | 0.0 | 0.00 | 0.00 | 0.00 | 82 | 1016.2 |
| 20260904002654 | 17 | 203 | 0.0 | 0.0 | 0.00 | 0.00 | 0.00 | 82 | 1016.0 |
| 20260904002630 | 17 | 203 | 0.0 | 0.0 | 0.00 | 0.00 | 0.00 | 82 | 1016.1 |
| 20260904002614 | 17 | 203 | 0.0 | 0.0 | 0.00 | 0.00 | 0.00 | 82 | 1015.9 |
| 20260904002239 | 17 | 203 | 0.0 | 0.0 | 0.00 | 0.00 | 0.00 | 82 | 1015.9 |
| 20260904002155 | 17 | 203 | 0.0 | 0.0 | 0.00 | 0.00 | 0.00 | 82 | 1016.2 |
| 20260904002054 | 17 | 203 | 0.0 | 0.0 | 0.00 | 0.00 | 0.00 | 82 | 1016.1 |
| 20260904002040 | 17 | 203 | 0.0 | 0.0 | 0.00 | 0.00 | 0.00 | 82 | 1016.1 |
| 20260904002030 | 17 | 203 | 0.0 | 0.0 | 0.00 | 0.00 | 0.00 | 82 | 1015.8 |
| 20260904002014 | 17 | 203 | 0.0 | 0.0 | 0.00 | 0.00 | 0.00 | 82 | 1016.3 |
| 20260904001958 | 17 | 203 | 0.0 | 0.0 | 0.00 | 0.00 | 0.00 | 82 | 1016.1 |
| 20260904001655 | 17 | 203 | 0.0 | 0.0 | 0.00 | 0.00 | 0.00 | 82 | 1016.2 |
| 20260904001555 | 17 | 203 | 0.0 | 0.0 | 0.00 | 0.00 | 0.00 | 82 | 1016.2 |
| 20260904001455 | 17 | 203 | 0.0 | 0.0 | 0.00 | 0.00 | 0.00 | 82 | 1016.1 |
| 20260904001354 | 17 | 203 | 0.0 | 0.0 | 0.00 | 0.00 | 0.00 | 82 | 1016.2 |
| 20260904001238 | 17 | 203 | 0.0 | 0.0 | 0.00 | 0.00 | 0.00 | 82 | 1016.3 |
| 20260904001154 | 17 | 203 | 0.0 | 0.0 | 0.00 | 0.00 | 0.00 | 82 | 1016.1 |
| 20260904001054 | 17 | 203 | 0.0 | 0.0 | 0.00 | 0.00 | 0.00 | 82 | 1016.1 |
| 20260904000953 | 17 | 203 | 0.0 | 0.0 | 0.00 | 0.00 | 0.00 | 82 | 1016.2 |
| 20260904000854 | 17 | 203 | 0.0 | 0.0 | 0.00 | 0.00 | 0.00 | 82 | 1016.3 |
| 20260904000739 | 17 | 203 | 0.0 | 0.0 | 0.00 | 0.00 | 0.00 | 82 | 1016.1 |
| 20260904000655 | 17 | 203 | 0.0 | 0.0 | 0.00 | 0.00 | 0.00 | 82 | 1016.0 |
| 20260904000555 | 17 | 203 | 0.0 | 0.0 | 0.00 | 0.00 | 0.00 | 82 | 1016.2 |
| 20260904000455 | 17 | 203 | 0.0 | 0.0 | 0.00 | 0.00 | 0.00 | 82 | 1016.1 |
| 20260904000355 | 17 | 203 | 0.0 | 0.0 | 0.00 | 0.00 | 0.00 | 82 | 1016.2 |
| 20260904000240 | 17 | 203 | 0.0 | 0.0 | 0.00 | 0.00 | 0.00 | 82 | 1016.0 |
| 20260904000154 | 17 | 203 | 0.0 | 0.0 | 0.00 | 0.00 | 0.00 | 82 | 1015.9 |
| 20260904000054 | 17 | 203 | 0.0 | 0.0 | 0.00 | 0.00 | 0.00 | 82 | 1016.1 |
| 20260903235953 | 17 | 203 | 0.0 | 0.0 | 0.00 | 0.00 | 0.00 | 82 | 1016.0 |
| 20260903235854 | 17 | 203 | 0.0 | 0.0 | 0.00 | 0.00 | 0.00 | 82 | 1016.2 |
| 20260903235758 | 17 | 203 | 0.0 | 0.0 | 0.00 | 0.00 | 0.00 | 82 | 1016.3 |
| 20260903235740 | 17 | 204 | 0.0 | 0.0 | 0.00 | 0.00 | 0.00 | 82 | 1016.2 |
| 20260903235729 | 17 | 204 | 0.0 | 0.0 | 0.00 | 0.00 | 0.00 | 82 | 1016.2 |
| 20260903235713 | 17 | 204 | 0.0 | 0.0 | 0.00 | 0.00 | 0.00 | 82 | 1016.2 |
| 20260903235658 | 17 | 202 | 0.0 | 0.0 | 0.00 | 0.00 | 0.00 | 82 | 1015.9 |
| 20260903235644 | 17 | 203 | 0.0 | 0.0 | 0.00 | 0.00 | 0.00 | 82 | 1016.1 |
| 20260903235628 | 17 | 203 | 0.0 | 0.0 | 0.00 | 0.00 | 0.00 | 82 | 1016.3 |
| 20260903235401 | 17 | 203 | 0.0 | 0.0 | 0.00 | 0.00 | 0.00 | 82 | 1016.1 |
| 20260903235123 | 17 | 203 | 0.0 | 0.0 | 0.00 | 0.00 | 0.00 | 82 | 1016.3 |
| 20260903235106 | 16 | 203 | 0.0 | 0.0 | 0.00 | 0.00 | 0.00 | 82 | 1016.4 |
| 20260903235037 | 16 | 203 | 0.0 | 0.0 | 0.00 | 0.00 | 0.00 | 82 | 1016.3 |
| 20260903234752 | 16 | 203 | 0.0 | 0.0 | 0.00 | 0.00 | 0.00 | 82 | 1016.4 |
| 20260903234516 | 16 | 203 | 0.0 | 1.6 | 0.00 | 0.00 | 0.00 | 82 | 1016.4 |
| 20260903234238 | 16 | 203 | 0.0 | 1.6 | 0.00 | 0.00 | 0.00 | 82 | 1016.4 |
| 20260903234154 | 16 | 203 | 0.0 | 1.6 | 0.00 | 0.00 | 0.00 | 82 | 1016.3 |
| 20260903234055 | 16 | 204 | 0.0 | 1.6 | 0.00 | 0.00 | 0.00 | 82 | 1016.6 |
| 20260903233954 | 16 | 204 | 0.0 | 1.6 | 0.00 | 0.00 | 0.00 | 82 | 1016.2 |
| 20260903233855 | 16 | 205 | 0.0 | 1.6 | 0.00 | 0.00 | 0.00 | 82 | 1016.4 |
| 20260903233753 | 16 | 205 | 0.0 | 1.6 | 0.00 | 0.00 | 0.00 | 82 | 1016.2 |
| 20260903233739 | 16 | 204 | 0.0 | 1.6 | 0.00 | 0.00 | 0.00 | 82 | 1016.2 |
| 20260903233728 | 16 | 205 | 0.0 | 1.6 | 0.00 | 0.00 | 0.00 | 82 | 1016.3 |
| 20260903233712 | 16 | 205 | 0.0 | 1.6 | 0.00 | 0.00 | 0.00 | 82 | 1016.1 |
| 20260903233656 | 16 | 206 | 0.0 | 1.6 | 0.00 | 0.00 | 0.00 | 82 | 1016.4 |
| 20260903233641 | 16 | 200 | 0.0 | 0.0 | 0.00 | 0.00 | 0.00 | 82 | 1016.3 |
| 20260903233409 | 16 | 205 | 0.0 | 0.0 | 0.00 | 0.00 | 0.00 | 82 | 1016.1 |
| 20260903233055 | 16 | 200 | 0.0 | 0.0 | 0.00 | 0.00 | 0.00 | 82 | 1016.3 |
| 20260903233018 | 16 | 199 | 0.0 | 0.0 | 0.00 | 0.00 | 0.00 | 82 | 1016.2 |
| 20260903233003 | 16 | 199 | 0.0 | 0.0 | 0.00 | 0.00 | 0.00 | 82 | 1016.2 |
| 20260903232933 | 16 | 199 | 0.0 | 0.0 | 0.00 | 0.00 | 0.00 | 82 | 1016.2 |
| 20260903232923 | 16 | 199 | 0.0 | 0.0 | 0.00 | 0.00 | 0.00 | 82 | 1016.4 |
| 20260903232648 | 16 | 197 | 0.0 | 0.0 | 0.00 | 0.00 | 0.00 | 82 | 1016.4 |
| 20260903232632 | 16 | 197 | 0.0 | 0.0 | 0.00 | 0.00 | 0.00 | 82 | 1016.3 |
| 20260903232603 | 16 | 197 | 0.0 | 0.0 | 0.00 | 0.00 | 0.00 | 82 | 1016.5 |
| 20260903232333 | 16 | 196 | 0.0 | 0.0 | 0.00 | 0.00 | 0.00 | 82 | 1016.4 |
| 20260903232319 | 16 | 196 | 0.0 | 0.0 | 0.00 | 0.00 | 0.00 | 82 | 1016.3 |
| 20260903231824 | 16 | 196 | 0.0 | 0.0 | 0.00 | 0.00 | 0.00 | 82 | 1016.4 |
| 20260903231814 | 16 | 196 | 0.0 | 0.0 | 0.00 | 0.00 | 0.00 | 82 | 1016.2 |
| 20260903231758 | 16 | 195 | 0.0 | 0.0 | 0.00 | 0.00 | 0.00 | 82 | 1016.5 |
| 20260903231742 | 16 | 195 | 0.0 | 0.0 | 0.00 | 0.00 | 0.00 | 82 | 1016.5 |
| 20260903231251 | 16 | 195 | 0.0 | 0.0 | 0.00 | 0.00 | 0.00 | 82 | 1016.4 |
| 20260903231154 | 16 | 195 | 0.0 | 0.0 | 0.00 | 0.00 | 0.00 | 82 | 1016.5 |
| 20260903231056 | 16 | 196 | 0.0 | 0.0 | 0.00 | 0.00 | 0.00 | 82 | 1016.4 |
| 20260903230954 | 16 | 195 | 0.0 | 0.0 | 0.00 | 0.00 | 0.00 | 82 | 1016.5 |
| 20260903230854 | 16 | 196 | 0.0 | 0.0 | 0.00 | 0.00 | 0.00 | 82 | 1016.5 |
| 20260903230819 | 16 | 196 | 0.0 | 0.0 | 0.00 | 0.00 | 0.00 | 82 | 1016.4 |
| 20260903230808 | 16 | 195 | 0.0 | 0.0 | 0.00 | 0.00 | 0.00 | 82 | 1016.7 |
| 20260903230752 | 16 | 196 | 0.0 | 0.0 | 0.00 | 0.00 | 0.00 | 82 | 1016.5 |
| 20260903230514 | 16 | 196 | 0.0 | 0.0 | 0.00 | 0.00 | 0.00 | 82 | 1016.5 |
| 20260903230238 | 16 | 196 | 0.0 | 0.0 | 0.00 | 0.00 | 0.00 | 82 | 1016.3 |
| 20260903230154 | 16 | 196 | 0.0 | 0.0 | 0.00 | 0.00 | 0.00 | 81 | 1016.3 |
| 20260903230130 | 16 | 196 | 0.0 | 0.0 | 0.00 | 0.00 | 0.00 | 81 | 1016.6 |
| 20260903230114 | 17 | 196 | 0.0 | 0.0 | 0.00 | 0.00 | 0.00 | 81 | 1016.5 |
| 20260903225740 | 17 | 198 | 0.0 | 0.0 | 0.00 | 0.00 | 0.00 | 81 | 1016.4 |
| 20260903225729 | 17 | 198 | 0.0 | 0.0 | 0.00 | 0.00 | 0.00 | 81 | 1016.7 |
| 20260903225714 | 17 | 198 | 0.0 | 0.0 | 0.00 | 0.00 | 0.00 | 81 | 1016.4 |
| 20260903225354 | 17 | 198 | 0.0 | 0.0 | 0.00 | 0.00 | 0.00 | 81 | 1016.7 |
| 20260903225239 | 17 | 198 | 0.0 | 0.0 | 0.00 | 0.00 | 0.00 | 81 | 1016.7 |
| 20260903225154 | 17 | 198 | 0.0 | 0.0 | 0.00 | 0.00 | 0.00 | 81 | 1016.6 |
| 20260903225055 | 17 | 198 | 0.0 | 0.0 | 0.00 | 0.00 | 0.00 | 81 | 1016.6 |
| 20260903225031 | 17 | 198 | 0.0 | 0.0 | 0.00 | 0.00 | 0.00 | 81 | 1016.5 |
| 20260903225015 | 17 | 198 | 0.0 | 0.0 | 0.00 | 0.00 | 0.00 | 80 | 1016.6 |
| 20260903224738 | 17 | 198 | 0.0 | 0.0 | 0.00 | 0.00 | 0.00 | 80 | 1016.7 |
| 20260903224656 | 17 | 198 | 0.0 | 1.6 | 0.00 | 0.00 | 0.00 | 80 | 1016.6 |
| 20260903224554 | 17 | 198 | 0.0 | 1.6 | 0.00 | 0.00 | 0.00 | 80 | 1016.5 |
| 20260903224454 | 17 | 198 | 0.0 | 1.6 | 0.00 | 0.00 | 0.00 | 80 | 1016.5 |
| 20260903224354 | 17 | 198 | 0.0 | 1.6 | 0.00 | 0.00 | 0.00 | 80 | 1016.8 |
| 20260903224255 | 17 | 197 | 0.0 | 3.2 | 0.00 | 0.00 | 0.00 | 80 | 1016.8 |
| 20260903224239 | 17 | 196 | 0.0 | 4.8 | 0.00 | 0.00 | 0.00 | 80 | 1016.8 |
| 20260903224155 | 17 | 200 | 0.0 | 4.8 | 0.00 | 0.00 | 0.00 | 80 | 1016.7 |
| 20260903224055 | 17 | 200 | 0.0 | 4.8 | 0.00 | 0.00 | 0.00 | 80 | 1016.7 |
| 20260903223954 | 17 | 201 | 0.0 | 4.8 | 0.00 | 0.00 | 0.00 | 80 | 1016.4 |
| 20260903223938 | 17 | 204 | 0.0 | 4.8 | 0.00 | 0.00 | 0.00 | 80 | 1016.7 |
| 20260903223922 | 17 | 196 | 0.0 | 4.8 | 0.00 | 0.00 | 0.00 | 80 | 1016.7 |
| 20260903223909 | 17 | 198 | 0.0 | 4.8 | 0.00 | 0.00 | 0.00 | 80 | 1016.7 |
| 20260903223631 | 17 | 200 | 0.0 | 6.4 | 0.00 | 0.00 | 0.00 | 80 | 1016.7 |
| 20260903223615 | 17 | 200 | 0.0 | 6.4 | 0.00 | 0.00 | 0.00 | 80 | 1016.5 |
| 20260903223241 | 17 | 198 | 0.0 | 6.4 | 0.00 | 0.00 | 0.00 | 80 | 1016.5 |
| 20260903223230 | 16 | 199 | 0.0 | 6.4 | 0.00 | 0.00 | 0.00 | 80 | 1016.6 |
| 20260903223214 | 16 | 204 | 3.2 | 6.4 | 0.00 | 0.00 | 0.00 | 81 | 1016.4 |
| 20260903222853 | 16 | 199 | 0.0 | 6.4 | 0.00 | 0.00 | 0.00 | 82 | 1016.6 |
| 20260903222754 | 16 | 186 | 1.6 | 6.4 | 0.00 | 0.00 | 0.00 | 82 | 1016.5 |
| 20260903222738 | 16 | 249 | 3.2 | 6.4 | 0.00 | 0.00 | 0.00 | 82 | 1016.5 |
| 20260903222654 | 16 | 196 | 0.0 | 3.2 | 0.00 | 0.00 | 0.00 | 82 | 1016.4 |
| 20260903222554 | 16 | 204 | 0.0 | 3.2 | 0.00 | 0.00 | 0.00 | 83 | 1016.4 |
| 20260903222455 | 16 | 199 | 0.0 | 3.2 | 0.00 | 0.00 | 0.00 | 83 | 1016.6 |
| 20260903222355 | 16 | 198 | 0.0 | 3.2 | 0.00 | 0.00 | 0.00 | 83 | 1016.5 |
| 20260903222238 | 16 | 202 | 0.0 | 3.2 | 0.00 | 0.00 | 0.00 | 83 | 1016.5 |
| 20260903222154 | 16 | 203 | 0.0 | 3.2 | 0.00 | 0.00 | 0.00 | 83 | 1016.7 |
| 20260903222054 | 16 | 211 | 1.6 | 3.2 | 0.00 | 0.00 | 0.00 | 84 | 1016.7 |
| 20260903221954 | 16 | 206 | 0.0 | 0.0 | 0.00 | 0.00 | 0.00 | 84 | 1016.5 |
| 20260903221853 | 16 | 200 | 0.0 | 0.0 | 0.00 | 0.00 | 0.00 | 84 | 1016.6 |
| 20260903221739 | 16 | 200 | 0.0 | 0.0 | 0.00 | 0.00 | 0.00 | 84 | 1016.6 |
| 20260903221655 | 16 | 200 | 0.0 | 0.0 | 0.00 | 0.00 | 0.00 | 85 | 1016.6 |
| 20260903221554 | 16 | 203 | 0.0 | 1.6 | 0.00 | 0.00 | 0.00 | 85 | 1016.7 |
| 20260903221454 | 16 | 203 | 0.0 | 1.6 | 0.00 | 0.00 | 0.00 | 85 | 1016.6 |
| 20260903221354 | 16 | 204 | 0.0 | 1.6 | 0.00 | 0.00 | 0.00 | 86 | 1016.6 |
| 20260903221241 | 16 | 204 | 0.0 | 1.6 | 0.00 | 0.00 | 0.00 | 86 | 1016.7 |
| 20260903221231 | 16 | 205 | 0.0 | 1.6 | 0.00 | 0.00 | 0.00 | 86 | 1016.5 |
| 20260903221214 | 16 | 205 | 0.0 | 1.6 | 0.00 | 0.00 | 0.00 | 86 | 1016.5 |
| 20260903220939 | 16 | 201 | 0.0 | 1.6 | 0.00 | 0.00 | 0.00 | 87 | 1016.5 |
| 20260903220910 | 15 | 201 | 0.0 | 1.6 | 0.00 | 0.00 | 0.00 | 87 | 1016.4 |
| 20260903220555 | 15 | 201 | 0.0 | 0.0 | 0.00 | 0.00 | 0.00 | 87 | 1016.2 |
| 20260903220454 | 15 | 201 | 0.0 | 0.0 | 0.00 | 0.00 | 0.00 | 88 | 1016.5 |
| 20260903220354 | 15 | 201 | 0.0 | 0.0 | 0.00 | 0.00 | 0.00 | 88 | 1016.5 |
| 20260903220252 | 15 | 201 | 0.0 | 0.0 | 0.00 | 0.00 | 0.00 | 88 | 1016.6 |
| 20260903220154 | 15 | 201 | 0.0 | 0.0 | 0.00 | 0.00 | 0.00 | 88 | 1016.7 |
| 20260903220054 | 15 | 201 | 0.0 | 0.0 | 0.00 | 0.00 | 0.00 | 88 | 1016.7 |
| 20260903215954 | 15 | 201 | 0.0 | 0.0 | 0.00 | 0.00 | 0.00 | 88 | 1016.6 |
| 20260903215853 | 15 | 201 | 0.0 | 0.0 | 0.00 | 0.00 | 0.00 | 88 | 1016.7 |
| 20260903215738 | 15 | 201 | 0.0 | 0.0 | 0.00 | 0.00 | 0.00 | 88 | 1016.7 |
| 20260903215654 | 15 | 201 | 0.0 | 0.0 | 0.00 | 0.00 | 0.00 | 89 | 1016.6 |
| 20260903215553 | 15 | 201 | 0.0 | 0.0 | 0.00 | 0.00 | 0.00 | 89 | 1016.4 |
| 20260903215454 | 15 | 201 | 0.0 | 0.0 | 0.00 | 0.00 | 0.00 | 89 | 1016.7 |
| 20260903215437 | 15 | 201 | 0.0 | 0.0 | 0.00 | 0.00 | 0.00 | 89 | 1016.6 |
| 20260903215410 | 15 | 201 | 0.0 | 0.0 | 0.00 | 0.00 | 0.00 | 89 | 1016.4 |
| 20260903215120 | 15 | 201 | 0.0 | 0.0 | 0.00 | 0.00 | 0.00 | 89 | 1016.9 |
| 20260903215105 | 15 | 201 | 0.0 | 0.0 | 0.00 | 0.00 | 0.00 | 89 | 1016.6 |
| 20260903215049 | 15 | 201 | 0.0 | 0.0 | 0.00 | 0.00 | 0.00 | 90 | 1016.7 |
| 20260903215018 | 15 | 201 | 0.0 | 0.0 | 0.00 | 0.00 | 0.00 | 90 | 1016.5 |
| 20260903215008 | 15 | 201 | 0.0 | 0.0 | 0.00 | 0.00 | 0.00 | 90 | 1016.6 |
| 20260903214734 | 15 | 201 | 0.0 | 0.0 | 0.00 | 0.00 | 0.00 | 90 | 1016.6 |
| 20260903214239 | 15 | 201 | 0.0 | 0.0 | 0.00 | 0.00 | 0.00 | 90 | 1016.6 |
| 20260903214229 | 15 | 201 | 0.0 | 0.0 | 0.00 | 0.00 | 0.00 | 90 | 1016.8 |
| 20260903214213 | 15 | 201 | 0.0 | 0.0 | 0.00 | 0.00 | 0.00 | 90 | 1016.5 |
| 20260903213857 | 15 | 201 | 0.0 | 0.0 | 0.00 | 0.00 | 0.00 | 90 | 1016.6 |
| 20260903213847 | 15 | 201 | 0.0 | 0.0 | 0.00 | 0.00 | 0.00 | 90 | 1016.5 |
| 20260903213843 | 15 | 201 | 0.0 | 0.0 | 0.00 | 0.00 | 0.00 | 90 | 1016.6 |
| 20260903213819 | 15 | 201 | 0.0 | 0.0 | 0.00 | 0.00 | 0.00 | 90 | 1016.9 |
| 20260903213808 | 15 | 201 | 0.0 | 0.0 | 0.00 | 0.00 | 0.00 | 90 | 1016.6 |
| 20260903213752 | 15 | 201 | 0.0 | 0.0 | 0.00 | 0.00 | 0.00 | 90 | 1016.6 |
| 20260903213737 | 15 | 201 | 0.0 | 0.0 | 0.00 | 0.00 | 0.00 | 90 | 1016.4 |
| 20260903213501 | 15 | 201 | 0.0 | 0.0 | 0.00 | 0.00 | 0.00 | 90 | 1016.5 |
| 20260903213232 | 15 | 201 | 0.0 | 0.0 | 0.00 | 0.00 | 0.00 | 90 | 1016.8 |
| 20260903213217 | 15 | 201 | 0.0 | 0.0 | 0.00 | 0.00 | 0.00 | 90 | 1016.5 |
| 20260903213201 | 15 | 201 | 0.0 | 0.0 | 0.00 | 0.00 | 0.00 | 90 | 1016.6 |
| 20260903213144 | 15 | 201 | 0.0 | 0.0 | 0.00 | 0.00 | 0.00 | 90 | 1016.7 |
| 20260903213129 | 15 | 201 | 0.0 | 0.0 | 0.00 | 0.00 | 0.00 | 90 | 1016.6 |
| 20260903212555 | 15 | 201 | 0.0 | 0.0 | 0.00 | 0.00 | 0.00 | 90 | 1016.6 |
| 20260903212453 | 15 | 201 | 0.0 | 0.0 | 0.00 | 0.00 | 0.00 | 90 | 1016.6 |
| 20260903212437 | 15 | 201 | 0.0 | 0.0 | 0.00 | 0.00 | 0.00 | 90 | 1016.6 |
| 20260903212409 | 14 | 201 | 0.0 | 0.0 | 0.00 | 0.00 | 0.00 | 90 | 1016.6 |
| 20260903212054 | 14 | 201 | 0.0 | 0.0 | 0.00 | 0.00 | 0.00 | 90 | 1016.7 |
| 20260903211954 | 14 | 201 | 0.0 | 0.0 | 0.00 | 0.00 | 0.00 | 90 | 1016.7 |
| 20260903211854 | 14 | 201 | 0.0 | 0.0 | 0.00 | 0.00 | 0.00 | 90 | 1016.7 |
| 20260903211738 | 14 | 201 | 0.0 | 0.0 | 0.00 | 0.00 | 0.00 | 90 | 1016.7 |
| 20260903211654 | 14 | 201 | 0.0 | 0.0 | 0.00 | 0.00 | 0.00 | 90 | 1016.8 |
| 20260903211554 | 14 | 201 | 0.0 | 0.0 | 0.00 | 0.00 | 0.00 | 90 | 1016.6 |
| 20260903211454 | 14 | 201 | 0.0 | 0.0 | 0.00 | 0.00 | 0.00 | 90 | 1016.7 |
| 20260903211354 | 14 | 201 | 0.0 | 0.0 | 0.00 | 0.00 | 0.00 | 90 | 1016.8 |
| 20260903211239 | 14 | 201 | 0.0 | 0.0 | 0.00 | 0.00 | 0.00 | 90 | 1016.8 |
| 20260903211155 | 14 | 201 | 0.0 | 0.0 | 0.00 | 0.00 | 0.00 | 90 | 1016.8 |
| 20260903211055 | 14 | 201 | 0.0 | 0.0 | 0.00 | 0.00 | 0.00 | 90 | 1016.7 |
| 20260903210954 | 14 | 201 | 0.0 | 0.0 | 0.00 | 0.00 | 0.00 | 90 | 1016.8 |
| 20260903210938 | 14 | 201 | 0.0 | 0.0 | 0.00 | 0.00 | 0.00 | 90 | 1016.6 |
| 20260903210909 | 14 | 201 | 0.0 | 0.0 | 0.00 | 0.00 | 0.00 | 90 | 1016.6 |
| 20260903210554 | 14 | 201 | 0.0 | 0.0 | 0.00 | 0.00 | 0.00 | 90 | 1016.7 |
| 20260903210529 | 14 | 201 | 0.0 | 0.0 | 0.00 | 0.00 | 0.00 | 90 | 1016.7 |
| 20260903210513 | 15 | 201 | 0.0 | 0.0 | 0.00 | 0.00 | 0.00 | 90 | 1016.8 |
| 20260903210241 | 15 | 201 | 0.0 | 0.0 | 0.00 | 0.00 | 0.00 | 90 | 1016.8 |
| 20260903210230 | 15 | 201 | 0.0 | 0.0 | 0.00 | 0.00 | 0.00 | 90 | 1016.7 |
| 20260903210215 | 15 | 201 | 0.0 | 0.0 | 0.00 | 0.00 | 0.00 | 90 | 1016.8 |
| 20260903205855 | 15 | 201 | 0.0 | 0.0 | 0.00 | 0.00 | 0.00 | 90 | 1016.7 |
| 20260903205738 | 15 | 201 | 0.0 | 0.0 | 0.00 | 0.00 | 0.00 | 90 | 1016.7 |
| 20260903205654 | 15 | 201 | 0.0 | 0.0 | 0.00 | 0.00 | 0.00 | 90 | 1016.6 |
| 20260903205555 | 15 | 201 | 0.0 | 0.0 | 0.00 | 0.00 | 0.00 | 90 | 1016.7 |
| 20260903205454 | 15 | 201 | 0.0 | 0.0 | 0.00 | 0.00 | 0.00 | 90 | 1016.5 |
| 20260903205354 | 15 | 201 | 0.0 | 0.0 | 0.00 | 0.00 | 0.00 | 90 | 1016.9 |
| 20260903205258 | 15 | 201 | 0.0 | 0.0 | 0.00 | 0.00 | 0.00 | 90 | 1016.7 |
| 20260903205247 | 15 | 201 | 0.0 | 0.0 | 0.00 | 0.00 | 0.00 | 90 | 1016.7 |
| 20260903205241 | 14 | 201 | 0.0 | 0.0 | 0.00 | 0.00 | 0.00 | 90 | 1016.7 |
| 20260903205230 | 14 | 201 | 0.0 | 0.0 | 0.00 | 0.00 | 0.00 | 90 | 1016.7 |
| 20260903205215 | 14 | 201 | 0.0 | 0.0 | 0.00 | 0.00 | 0.00 | 90 | 1016.5 |
| 20260903205159 | 14 | 201 | 0.0 | 0.0 | 0.00 | 0.00 | 0.00 | 90 | 1016.6 |
| 20260903205144 | 14 | 201 | 0.0 | 0.0 | 0.00 | 0.00 | 0.00 | 90 | 1016.5 |
| 20260903205128 | 15 | 201 | 0.0 | 0.0 | 0.00 | 0.00 | 0.00 | 90 | 1016.7 |
| 20260903204554 | 15 | 201 | 0.0 | 0.0 | 0.00 | 0.00 | 0.00 | 90 | 1016.4 |
| 20260903204515 | 15 | 201 | 0.0 | 0.0 | 0.00 | 0.00 | 0.00 | 90 | 1016.5 |
| 20260903204510 | 15 | 201 | 0.0 | 0.0 | 0.00 | 0.00 | 0.00 | 89 | 1016.5 |
| 20260903204503 | 15 | 201 | 0.0 | 0.0 | 0.00 | 0.00 | 0.00 | 90 | 1016.7 |
| 20260903204447 | 15 | 201 | 0.0 | 0.0 | 0.00 | 0.00 | 0.00 | 90 | 1016.7 |
| 20260903204420 | 15 | 201 | 0.0 | 0.0 | 0.00 | 0.00 | 0.00 | 90 | 1016.5 |
| 20260903204409 | 15 | 201 | 0.0 | 0.0 | 0.00 | 0.00 | 0.00 | 90 | 1016.7 |
| 20260903204353 | 15 | 201 | 0.0 | 0.0 | 0.00 | 0.00 | 0.00 | 90 | 1016.7 |
| 20260903204337 | 15 | 201 | 0.0 | 0.0 | 0.00 | 0.00 | 0.00 | 90 | 1016.7 |
| 20260903204321 | 15 | 201 | 0.0 | 0.0 | 0.00 | 0.00 | 0.00 | 90 | 1016.5 |
| 20260903204306 | 15 | 201 | 0.0 | 0.0 | 0.00 | 0.00 | 0.00 | 90 | 1016.5 |
| 20260903204037 | 15 | 201 | 0.0 | 0.0 | 0.00 | 0.00 | 0.00 | 90 | 1016.6 |
| 20260903204022 | 15 | 201 | 0.0 | 0.0 | 0.00 | 0.00 | 0.00 | 89 | 1016.6 |
| 20260903204005 | 15 | 201 | 0.0 | 0.0 | 0.00 | 0.00 | 0.00 | 89 | 1016.6 |
| 20260903203948 | 15 | 201 | 0.0 | 0.0 | 0.00 | 0.00 | 0.00 | 89 | 1016.8 |
| 20260903203932 | 15 | 201 | 0.0 | 0.0 | 0.00 | 0.00 | 0.00 | 89 | 1016.5 |
| 20260903203444 | 15 | 201 | 0.0 | 0.0 | 0.00 | 0.00 | 0.00 | 89 | 1016.7 |
| 20260903203429 | 15 | 201 | 0.0 | 0.0 | 0.00 | 0.00 | 0.00 | 89 | 1016.8 |
| 20260903203413 | 15 | 201 | 0.0 | 0.0 | 0.00 | 0.00 | 0.00 | 89 | 1016.9 |
| 20260903203344 | 15 | 201 | 0.0 | 0.0 | 0.00 | 0.00 | 0.00 | 89 | 1016.6 |
| 20260903203334 | 15 | 201 | 0.0 | 0.0 | 0.00 | 0.00 | 0.00 | 89 | 1016.6 |
| 20260903202606 | 15 | 201 | 0.0 | 0.0 | 0.00 | 0.00 | 0.00 | 89 | 1016.5 |
| 20260903202335 | 15 | 201 | 0.0 | 0.0 | 0.00 | 0.00 | 0.00 | 89 | 1016.6 |
| 20260903202319 | 15 | 201 | 0.0 | 0.0 | 0.00 | 0.00 | 0.00 | 89 | 1016.6 |
| 20260903202306 | 15 | 201 | 0.0 | 0.0 | 0.00 | 0.00 | 0.00 | 89 | 1016.7 |
| 20260903202029 | 15 | 201 | 0.0 | 0.0 | 0.00 | 0.00 | 0.00 | 89 | 1016.7 |
| 20260903201453 | 15 | 201 | 0.0 | 0.0 | 0.00 | 0.00 | 0.00 | 88 | 1016.7 |
| 20260903201404 | 15 | 201 | 0.0 | 0.0 | 0.00 | 0.00 | 0.00 | 88 | 1016.9 |
| 20260903201335 | 15 | 201 | 0.0 | 0.0 | 0.00 | 0.00 | 0.00 | 88 | 1016.7 |
| 20260903201312 | 15 | 201 | 0.0 | 0.0 | 0.00 | 0.00 | 0.00 | 88 | 1016.9 |
| 20260903200954 | 16 | 201 | 0.0 | 0.0 | 0.00 | 0.00 | 0.00 | 88 | 1016.9 |
| 20260903200854 | 16 | 201 | 0.0 | 0.0 | 0.00 | 0.00 | 0.00 | 88 | 1016.7 |
| 20260903200738 | 16 | 201 | 0.0 | 0.0 | 0.00 | 0.00 | 0.00 | 88 | 1016.8 |
| 20260903200655 | 16 | 201 | 0.0 | 0.0 | 0.00 | 0.00 | 0.00 | 88 | 1016.9 |
| 20260903200554 | 16 | 201 | 0.0 | 0.0 | 0.00 | 0.00 | 0.00 | 88 | 1016.8 |
| 20260903200454 | 16 | 201 | 0.0 | 0.0 | 0.00 | 0.00 | 0.00 | 88 | 1016.9 |
| 20260903200354 | 16 | 201 | 0.0 | 0.0 | 0.00 | 0.00 | 0.00 | 88 | 1016.6 |
| 20260903200238 | 16 | 201 | 0.0 | 0.0 | 0.00 | 0.00 | 0.00 | 88 | 1016.9 |
| 20260903200154 | 16 | 201 | 0.0 | 0.0 | 0.00 | 0.00 | 0.00 | 88 | 1016.8 |
| 20260903200054 | 16 | 201 | 0.0 | 0.0 | 0.00 | 0.00 | 0.00 | 88 | 1016.8 |
| 20260903195955 | 16 | 201 | 0.0 | 0.0 | 0.00 | 0.00 | 0.00 | 88 | 1016.7 |
| 20260903195854 | 16 | 201 | 0.0 | 0.0 | 0.00 | 0.00 | 0.00 | 87 | 1017.0 |
| 20260903195742 | 16 | 201 | 0.0 | 0.0 | 0.00 | 0.00 | 0.00 | 87 | 1016.7 |
| 20260903195731 | 16 | 201 | 0.0 | 0.0 | 0.00 | 0.00 | 0.00 | 87 | 1016.6 |
| 20260903195716 | 16 | 201 | 0.0 | 0.0 | 0.00 | 0.00 | 0.00 | 87 | 1016.6 |
| 20260903195355 | 16 | 201 | 0.0 | 0.0 | 0.00 | 0.00 | 0.00 | 86 | 1017.0 |
| 20260903195336 | 16 | 201 | 0.0 | 0.0 | 0.00 | 0.00 | 0.00 | 85 | 1016.6 |
| 20260903195315 | 16 | 201 | 0.0 | 0.0 | 0.00 | 0.00 | 0.00 | 86 | 1016.8 |
| 20260903195306 | 16 | 201 | 0.0 | 0.0 | 0.00 | 0.00 | 0.00 | 86 | 1016.8 |
| 20260903195248 | 16 | 201 | 0.0 | 0.0 | 0.00 | 0.00 | 0.00 | 86 | 1016.8 |
| 20260903195011 | 16 | 201 | 0.0 | 0.0 | 0.00 | 0.00 | 0.00 | 85 | 1016.8 |
| 20260903194956 | 16 | 201 | 0.0 | 0.0 | 0.00 | 0.00 | 0.00 | 85 | 1016.6 |
| 20260903194656 | 16 | 201 | 0.0 | 0.0 | 0.00 | 0.00 | 0.00 | 85 | 1017.0 |
| 20260903194554 | 16 | 201 | 0.0 | 0.0 | 0.00 | 0.00 | 0.00 | 85 | 1016.7 |
| 20260903194454 | 16 | 201 | 0.0 | 0.0 | 0.00 | 0.00 | 0.00 | 85 | 1016.9 |
| 20260903194354 | 16 | 201 | 0.0 | 0.0 | 0.00 | 0.00 | 0.00 | 85 | 1016.8 |
| 20260903194325 | 16 | 201 | 0.0 | 0.0 | 0.00 | 0.00 | 0.00 | 85 | 1016.7 |
| 20260903194314 | 16 | 201 | 0.0 | 0.0 | 0.00 | 0.00 | 0.00 | 85 | 1016.9 |
| 20260903193954 | 16 | 201 | 0.0 | 0.0 | 0.00 | 0.00 | 0.00 | 85 | 1016.7 |
| 20260903193854 | 16 | 201 | 0.0 | 0.0 | 0.00 | 0.00 | 0.00 | 85 | 1017.0 |
| 20260903193754 | 16 | 200 | 0.0 | 0.0 | 0.00 | 0.00 | 0.00 | 85 | 1016.8 |
| 20260903193738 | 16 | 201 | 0.0 | 0.0 | 0.00 | 0.00 | 0.00 | 85 | 1016.8 |
| 20260903193655 | 16 | 201 | 0.0 | 0.0 | 0.00 | 0.00 | 0.00 | 85 | 1016.9 |
| 20260903193554 | 16 | 200 | 0.0 | 0.0 | 0.00 | 0.00 | 0.00 | 85 | 1016.8 |
| 20260903193454 | 16 | 200 | 0.0 | 0.0 | 0.00 | 0.00 | 0.00 | 85 | 1016.9 |
| 20260903193354 | 16 | 200 | 0.0 | 0.0 | 0.00 | 0.00 | 0.00 | 85 | 1016.7 |
| 20260903193237 | 16 | 200 | 0.0 | 0.0 | 0.00 | 0.00 | 0.00 | 85 | 1017.0 |
| 20260903193154 | 16 | 200 | 0.0 | 0.0 | 0.00 | 0.00 | 0.00 | 84 | 1016.7 |
| 20260903193055 | 16 | 200 | 0.0 | 0.0 | 0.00 | 0.00 | 0.00 | 84 | 1016.8 |
| 20260903192954 | 16 | 200 | 0.0 | 0.0 | 0.00 | 0.00 | 0.00 | 84 | 1016.9 |
| 20260903192855 | 16 | 200 | 0.0 | 0.0 | 0.00 | 0.00 | 0.00 | 84 | 1016.8 |
| 20260903192825 | 16 | 200 | 0.0 | 0.0 | 0.00 | 0.00 | 0.00 | 84 | 1016.9 |
| 20260903192815 | 16 | 200 | 0.0 | 0.0 | 0.00 | 0.00 | 0.00 | 84 | 1017.0 |
| 20260903192522 | 16 | 200 | 0.0 | 0.0 | 0.00 | 0.00 | 0.00 | 83 | 1017.1 |
| 20260903192517 | 16 | 200 | 0.0 | 0.0 | 0.00 | 0.00 | 0.00 | 83 | 1017.1 |
| 20260903192510 | 16 | 200 | 0.0 | 0.0 | 0.00 | 0.00 | 0.00 | 84 | 1016.7 |
| 20260903192454 | 16 | 200 | 0.0 | 0.0 | 0.00 | 0.00 | 0.00 | 84 | 1016.8 |
| 20260903192427 | 16 | 200 | 0.0 | 0.0 | 0.00 | 0.00 | 0.00 | 84 | 1017.1 |
| 20260903192417 | 16 | 200 | 0.0 | 0.0 | 0.00 | 0.00 | 0.00 | 84 | 1016.9 |
| 20260903192403 | 16 | 200 | 0.0 | 0.0 | 0.00 | 0.00 | 0.00 | 84 | 1016.9 |
| 20260903191920 | 16 | 200 | 0.0 | 0.0 | 0.00 | 0.00 | 0.00 | 84 | 1017.0 |
| 20260903191850 | 16 | 200 | 0.0 | 0.0 | 0.00 | 0.00 | 0.00 | 84 | 1017.2 |
| 20260903191839 | 16 | 200 | 0.0 | 0.0 | 0.00 | 0.00 | 0.00 | 84 | 1017.2 |
| 20260903191824 | 16 | 200 | 0.0 | 0.0 | 0.00 | 0.00 | 0.00 | 84 | 1016.9 |
| 20260903191808 | 16 | 200 | 0.0 | 0.0 | 0.00 | 0.00 | 0.00 | 84 | 1017.1 |
| 20260903191532 | 16 | 200 | 0.0 | 0.0 | 0.00 | 0.00 | 0.00 | 83 | 1017.1 |
| 20260903191305 | 16 | 200 | 0.0 | 0.0 | 0.00 | 0.00 | 0.00 | 83 | 1017.0 |
| 20260903191250 | 16 | 200 | 0.0 | 0.0 | 0.00 | 0.00 | 0.00 | 83 | 1017.0 |
| 20260903191235 | 16 | 200 | 0.0 | 0.0 | 0.00 | 0.00 | 0.00 | 83 | 1016.8 |
| 20260903191219 | 16 | 200 | 0.0 | 0.0 | 0.00 | 0.00 | 0.00 | 83 | 1016.9 |
| 20260903191203 | 16 | 200 | 0.0 | 0.0 | 0.00 | 0.00 | 0.00 | 83 | 1017.1 |
| 20260903190714 | 16 | 199 | 0.0 | 0.0 | 0.00 | 0.00 | 0.00 | 83 | 1017.2 |
| 20260903190354 | 16 | 199 | 0.0 | 0.0 | 0.00 | 0.00 | 0.00 | 83 | 1016.9 |
| 20260903190239 | 16 | 199 | 0.0 | 0.0 | 0.00 | 0.00 | 0.00 | 83 | 1016.9 |
| 20260903190154 | 16 | 199 | 0.0 | 0.0 | 0.00 | 0.00 | 0.00 | 83 | 1017.0 |
| 20260903190129 | 16 | 199 | 0.0 | 0.0 | 0.00 | 0.00 | 0.00 | 83 | 1017.1 |
| 20260903190113 | 16 | 199 | 0.0 | 0.0 | 0.00 | 0.00 | 0.00 | 83 | 1017.1 |
| 20260903185738 | 16 | 199 | 0.0 | 0.0 | 0.00 | 0.00 | 0.00 | 83 | 1017.0 |
| 20260903185654 | 16 | 199 | 0.0 | 0.0 | 0.00 | 0.00 | 0.00 | 83 | 1016.9 |
| 20260903185623 | 16 | 199 | 0.0 | 0.0 | 0.00 | 0.00 | 0.00 | 83 | 1017.2 |
| 20260903185535 | 16 | 199 | 0.0 | 0.0 | 0.00 | 0.00 | 0.00 | 83 | 1017.3 |
| 20260903185519 | 16 | 199 | 0.0 | 0.0 | 0.00 | 0.00 | 0.00 | 83 | 1017.0 |
| 20260903185238 | 16 | 199 | 0.0 | 0.0 | 0.00 | 0.00 | 0.00 | 82 | 1016.9 |
| 20260903185155 | 16 | 199 | 0.0 | 0.0 | 0.00 | 0.00 | 0.00 | 83 | 1017.1 |
| 20260903185054 | 16 | 199 | 0.0 | 0.0 | 0.00 | 0.00 | 0.00 | 82 | 1017.0 |
| 20260903184954 | 16 | 199 | 0.0 | 0.0 | 0.00 | 0.00 | 0.00 | 83 | 1017.0 |
| 20260903184854 | 16 | 199 | 0.0 | 0.0 | 0.00 | 0.00 | 0.00 | 82 | 1017.0 |
| 20260903184754 | 16 | 199 | 0.0 | 0.0 | 0.00 | 0.00 | 0.00 | 83 | 1017.0 |
| 20260903184738 | 16 | 199 | 0.0 | 0.0 | 0.00 | 0.00 | 0.00 | 83 | 1017.2 |
| 20260903184654 | 16 | 198 | 0.0 | 0.0 | 0.00 | 0.00 | 0.00 | 82 | 1017.2 |
| 20260903184554 | 16 | 198 | 0.0 | 0.0 | 0.00 | 0.00 | 0.00 | 83 | 1016.9 |
| 20260903184526 | 17 | 196 | 0.0 | 0.0 | 0.00 | 0.00 | 0.00 | 80 | 1017.2 |
| 20260903184518 | 17 | 198 | 0.0 | 0.0 | 0.00 | 0.00 | 0.00 | 82 | 1017.1 |
| 20260903184503 | 17 | 198 | 0.0 | 0.0 | 0.00 | 0.00 | 0.00 | 82 | 1017.2 |
| 20260903184434 | 16 | 198 | 0.0 | 0.0 | 0.00 | 0.00 | 0.00 | 82 | 1017.0 |
| 20260903184423 | 16 | 198 | 0.0 | 0.0 | 0.00 | 0.00 | 0.00 | 81 | 1017.0 |
| 20260903184408 | 17 | 198 | 0.0 | 0.0 | 0.00 | 0.00 | 0.00 | 81 | 1017.1 |
| 20260903184352 | 17 | 198 | 0.0 | 0.0 | 0.00 | 0.00 | 0.00 | 81 | 1017.1 |
| 20260903184336 | 17 | 198 | 0.0 | 0.0 | 0.00 | 0.00 | 0.00 | 81 | 1017.2 |
| 20260903184102 | 17 | 196 | 0.0 | 0.0 | 0.00 | 0.00 | 0.00 | 81 | 1017.1 |
| 20260903183832 | 17 | 195 | 0.0 | 0.0 | 0.00 | 0.00 | 0.00 | 81 | 1017.4 |
| 20260903183817 | 17 | 195 | 0.0 | 0.0 | 0.00 | 0.00 | 0.00 | 81 | 1017.3 |
| 20260903183801 | 17 | 195 | 0.0 | 0.0 | 0.00 | 0.00 | 0.00 | 81 | 1017.3 |
| 20260903183726 | 17 | 196 | 0.0 | 0.0 | 0.00 | 0.00 | 0.00 | 81 | 1017.1 |
| 20260903183715 | 17 | 195 | 0.0 | 0.0 | 0.00 | 0.00 | 0.00 | 81 | 1017.2 |
| 20260903183659 | 17 | 195 | 0.0 | 0.0 | 0.00 | 0.00 | 0.00 | 81 | 1017.4 |
| 20260903183643 | 17 | 197 | 0.0 | 0.0 | 0.00 | 0.00 | 0.00 | 81 | 1017.1 |
| 20260903183627 | 17 | 197 | 0.0 | 0.0 | 0.00 | 0.00 | 0.00 | 81 | 1017.1 |
| 20260903183611 | 17 | 196 | 0.0 | 0.0 | 0.00 | 0.00 | 0.00 | 80 | 1017.2 |
| 20260903183342 | 17 | 196 | 0.0 | 0.0 | 0.00 | 0.00 | 0.00 | 80 | 1017.3 |
| 20260903182408 | 17 | 268 | 0.0 | 0.0 | 0.00 | 0.00 | 0.00 | 80 | 1017.2 |
| 20260903182100 | 17 | 196 | 0.0 | 0.0 | 0.00 | 0.00 | 0.00 | 80 | 1017.2 |
| 20260903182038 | 17 | 196 | 0.0 | 0.0 | 0.00 | 0.00 | 0.00 | 80 | 1017.1 |
| 20260903182015 | 17 | 196 | 0.0 | 0.0 | 0.00 | 0.00 | 0.00 | 80 | 1017.2 |
| 20260903181738 | 17 | 196 | 0.0 | 0.0 | 0.00 | 0.00 | 0.00 | 80 | 1017.1 |
| 20260903181703 | 17 | 196 | 0.0 | 0.0 | 0.00 | 0.00 | 0.00 | 79 | 1016.9 |
| 20260903181555 | 17 | 196 | 0.0 | 0.0 | 0.00 | 0.00 | 0.00 | 79 | 1017.0 |
| 20260903181454 | 18 | 196 | 0.0 | 0.0 | 0.00 | 0.00 | 0.00 | 79 | 1017.1 |
| 20260903181355 | 18 | 196 | 0.0 | 0.0 | 0.00 | 0.00 | 0.00 | 79 | 1017.1 |
| 20260903181240 | 18 | 196 | 0.0 | 0.0 | 0.00 | 0.00 | 0.00 | 79 | 1017.0 |
| 20260903181230 | 18 | 196 | 0.0 | 0.0 | 0.00 | 0.00 | 0.00 | 79 | 1017.0 |
| 20260903181214 | 18 | 196 | 0.0 | 0.0 | 0.00 | 0.00 | 0.00 | 79 | 1017.0 |
| 20260903180855 | 18 | 196 | 0.0 | 0.0 | 0.00 | 0.00 | 0.00 | 79 | 1017.0 |
| 20260903180758 | 18 | 197 | 0.0 | 0.0 | 0.00 | 0.00 | 0.00 | 74 | 1017.2 |
| 20260903180740 | 18 | 196 | 0.0 | 0.0 | 0.00 | 0.00 | 0.00 | 78 | 1017.2 |
| 20260903180733 | 18 | 197 | 0.0 | 0.0 | 0.00 | 0.00 | 0.00 | 76 | 1017.1 |
| 20260903180725 | 18 | 196 | 0.0 | 0.0 | 0.00 | 0.00 | 0.00 | 78 | 1017.2 |
| 20260903180710 | 18 | 197 | 0.0 | 0.0 | 0.00 | 0.00 | 0.00 | 78 | 1017.2 |
| 20260903180653 | 18 | 196 | 0.0 | 0.0 | 0.00 | 0.00 | 0.00 | 77 | 1017.0 |
| 20260903180637 | 18 | 197 | 0.0 | 0.0 | 0.00 | 0.00 | 0.00 | 77 | 1017.1 |
| 20260903180620 | 18 | 197 | 0.0 | 0.0 | 0.00 | 0.00 | 0.00 | 76 | 1017.1 |
| 20260903180354 | 18 | 197 | 0.0 | 0.0 | 0.00 | 0.00 | 0.00 | 76 | 1017.0 |
| 20260903180130 | 18 | 197 | 0.0 | 0.0 | 0.00 | 0.00 | 0.00 | 75 | 1017.0 |
| 20260903180114 | 18 | 197 | 0.0 | 0.0 | 0.00 | 0.00 | 0.00 | 75 | 1016.9 |
| 20260903180058 | 18 | 199 | 0.0 | 0.0 | 0.00 | 0.00 | 0.00 | 75 | 1017.1 |
| 20260903180043 | 18 | 197 | 0.0 | 0.0 | 0.00 | 0.00 | 0.00 | 74 | 1017.2 |
| 20260903175814 | 18 | 197 | 0.0 | 0.0 | 0.00 | 0.00 | 0.00 | 74 | 1016.9 |
| 20260903175529 | 18 | 197 | 0.0 | 0.0 | 0.00 | 0.00 | 0.00 | 74 | 1017.0 |
| 20260903175514 | 18 | 197 | 0.0 | 0.0 | 0.00 | 0.00 | 0.00 | 74 | 1017.2 |
| 20260903175239 | 18 | 197 | 0.0 | 0.0 | 0.00 | 0.00 | 0.00 | 74 | 1017.2 |
| 20260903175218 | 18 | 197 | 0.0 | 0.0 | 0.00 | 0.00 | 0.00 | 75 | 1017.0 |
| 20260903175213 | 18 | 197 | 0.0 | 0.0 | 0.00 | 0.00 | 0.00 | 74 | 1017.1 |
| 20260903175206 | 18 | 197 | 0.0 | 0.0 | 0.00 | 0.00 | 0.00 | 75 | 1016.9 |
| 20260903175149 | 18 | 197 | 0.0 | 0.0 | 0.00 | 0.00 | 0.00 | 75 | 1017.0 |
| 20260903175116 | 18 | 197 | 0.0 | 0.0 | 0.00 | 0.00 | 0.00 | 75 | 1016.9 |
| 20260903175054 | 18 | 197 | 0.0 | 0.0 | 0.00 | 0.00 | 0.00 | 75 | 1016.9 |
| 20260903175037 | 18 | 197 | 0.0 | 0.0 | 0.00 | 0.00 | 0.00 | 75 | 1017.0 |
| 20260903174808 | 18 | 197 | 0.0 | 0.0 | 0.00 | 0.00 | 0.00 | 76 | 1017.1 |
| 20260903174752 | 18 | 197 | 0.0 | 0.0 | 0.00 | 0.00 | 0.00 | 76 | 1017.3 |
| 20260903174735 | 18 | 197 | 0.0 | 0.0 | 0.00 | 0.00 | 0.00 | 75 | 1017.0 |
| 20260903174720 | 18 | 197 | 0.0 | 0.0 | 0.00 | 0.00 | 0.00 | 75 | 1017.0 |
| 20260903174652 | 18 | 197 | 0.0 | 0.0 | 0.00 | 0.00 | 0.00 | 75 | 1017.0 |
| 20260903174200 | 18 | 197 | 0.0 | 0.0 | 0.00 | 0.00 | 0.00 | 74 | 1017.0 |
| 20260903174144 | 18 | 196 | 0.0 | 0.0 | 0.00 | 0.00 | 0.00 | 74 | 1017.1 |
| 20260903174128 | 18 | 197 | 0.0 | 0.0 | 0.00 | 0.00 | 0.00 | 74 | 1017.1 |
| 20260903173639 | 19 | 198 | 0.0 | 0.0 | 0.00 | 0.00 | 0.00 | 75 | 1017.0 |
| 20260903173629 | 18 | 197 | 0.0 | 0.0 | 0.00 | 0.00 | 0.00 | 74 | 1016.8 |
| 20260903173613 | 18 | 196 | 0.0 | 0.0 | 0.00 | 0.00 | 0.00 | 74 | 1017.0 |
| 20260903173555 | 18 | 196 | 0.0 | 0.0 | 0.00 | 0.00 | 0.00 | 74 | 1016.9 |
| 20260903173540 | 19 | 197 | 0.0 | 0.0 | 0.00 | 0.00 | 0.00 | 74 | 1017.0 |
| 20260903173528 | 19 | 197 | 0.0 | 0.0 | 0.00 | 0.00 | 0.00 | 75 | 1017.0 |
| 20260903173518 | 19 | 197 | 0.0 | 0.0 | 0.00 | 0.00 | 0.00 | 75 | 1017.0 |
| 20260903173502 | 19 | 196 | 0.0 | 0.0 | 0.00 | 0.00 | 0.00 | 75 | 1016.9 |
| 20260903173445 | 19 | 196 | 0.0 | 0.0 | 0.00 | 0.00 | 0.00 | 75 | 1017.1 |
| 20260903173429 | 19 | 196 | 0.0 | 0.0 | 0.00 | 0.00 | 0.00 | 75 | 1017.0 |
| 20260903173155 | 19 | 196 | 0.0 | 0.0 | 0.00 | 0.00 | 0.00 | 75 | 1017.1 |
| 20260903173145 | 19 | 196 | 0.0 | 0.0 | 0.00 | 0.00 | 0.00 | 75 | 1017.1 |
| 20260903172642 | 19 | 196 | 0.0 | 0.0 | 0.00 | 0.00 | 0.00 | 75 | 1017.1 |
| 20260903172625 | 19 | 196 | 0.0 | 0.0 | 0.00 | 0.00 | 0.00 | 75 | 1017.0 |
| 20260903172056 | 19 | 195 | 0.0 | 0.0 | 0.00 | 0.00 | 0.00 | 74 | 1017.0 |
| 20260903172044 | 20 | 194 | 0.0 | 0.0 | 0.00 | 0.00 | 0.00 | 73 | 1016.9 |
| 20260903172033 | 20 | 194 | 0.0 | 0.0 | 0.00 | 0.00 | 0.00 | 74 | 1017.0 |
| 20260903172018 | 20 | 194 | 0.0 | 0.0 | 0.00 | 0.00 | 0.00 | 74 | 1016.9 |
| 20260903172001 | 20 | 194 | 0.0 | 0.0 | 0.00 | 0.00 | 0.00 | 73 | 1016.8 |
| 20260903171738 | 20 | 194 | 0.0 | 0.0 | 0.00 | 0.00 | 0.00 | 73 | 1016.8 |
| 20260903171727 | 20 | 194 | 0.0 | 0.0 | 0.00 | 0.00 | 0.00 | 73 | 1016.9 |
| 20260903171712 | 20 | 194 | 0.0 | 0.0 | 0.00 | 0.00 | 0.00 | 73 | 1017.1 |
| 20260903171651 | 20 | 194 | 0.0 | 0.0 | 0.00 | 0.00 | 0.00 | 73 | 1016.8 |
| 20260903171635 | 20 | 194 | 0.0 | 0.0 | 0.00 | 0.00 | 0.00 | 72 | 1017.0 |
| 20260903171619 | 20 | 194 | 0.0 | 0.0 | 0.00 | 0.00 | 0.00 | 73 | 1016.9 |
| 20260903171352 | 20 | 194 | 0.0 | 0.0 | 0.00 | 0.00 | 0.00 | 72 | 1017.1 |
| 20260903171335 | 20 | 194 | 0.0 | 0.0 | 0.00 | 0.00 | 0.00 | 73 | 1017.0 |
| 20260903170741 | 20 | 107 | 0.0 | 0.0 | 0.00 | 0.00 | 0.00 | 73 | 1017.1 |
| 20260903170641 | 20 | 192 | 0.0 | 0.0 | 0.00 | 0.00 | 0.00 | 72 | 1017.0 |
| 20260903170541 | 20 | 195 | 0.0 | 0.0 | 0.00 | 0.00 | 0.00 | 72 | 1016.9 |
| 20260903170452 | 20 | 192 | 0.0 | 0.0 | 0.00 | 0.00 | 0.00 | 73 | 1016.9 |
| 20260903170436 | 20 | 196 | 0.0 | 0.0 | 0.00 | 0.00 | 0.00 | 72 | 1016.8 |
| 20260903170413 | 20 | 199 | 0.0 | 0.0 | 0.00 | 0.00 | 0.00 | 73 | 1017.0 |
| 20260903170357 | 20 | 196 | 0.0 | 0.0 | 0.00 | 0.00 | 0.00 | 72 | 1016.9 |
| 20260903170341 | 20 | 192 | 0.0 | 0.0 | 0.00 | 0.00 | 0.00 | 73 | 1016.9 |
| 20260903170105 | 20 | 196 | 0.0 | 0.0 | 0.00 | 0.00 | 0.00 | 72 | 1017.1 |
| 20260903170039 | 20 | 194 | 0.0 | 0.0 | 0.00 | 0.00 | 0.00 | 73 | 1016.9 |
| 20260903170022 | 20 | 195 | 0.0 | 0.0 | 0.00 | 0.00 | 0.00 | 72 | 1017.0 |
| 20260903170006 | 20 | 198 | 0.0 | 0.0 | 0.00 | 0.00 | 0.00 | 72 | 1017.1 |
| 20260903165501 | 20 | 195 | 0.0 | 0.0 | 0.00 | 0.00 | 0.00 | 72 | 1016.9 |
| 20260903164918 | 20 | 194 | 0.0 | 0.0 | 0.00 | 0.00 | 0.00 | 71 | 1017.0 |
| 20260903164819 | 20 | 196 | 0.0 | 0.0 | 0.00 | 0.00 | 0.00 | 71 | 1016.8 |
| 20260903164716 | 20 | 196 | 0.0 | 0.0 | 0.00 | 0.00 | 0.00 | 71 | 1016.8 |
| 20260903164318 | 20 | 197 | 0.0 | 0.0 | 0.00 | 0.00 | 0.00 | 71 | 1017.1 |
| 20260903164301 | 20 | 195 | 0.0 | 0.0 | 0.00 | 0.00 | 0.00 | 70 | 1016.9 |
| 20260903163939 | 20 | 195 | 0.0 | 0.0 | 0.00 | 0.00 | 0.00 | 70 | 1016.9 |
| 20260903163847 | 20 | 192 | 0.0 | 0.0 | 0.00 | 0.00 | 0.00 | 69 | 1016.9 |
| 20260903163842 | 20 | 194 | 0.0 | 0.0 | 0.00 | 0.00 | 0.00 | 70 | 1017.0 |
| 20260903163817 | 20 | 194 | 0.0 | 0.0 | 0.00 | 0.00 | 0.00 | 69 | 1017.0 |
| 20260903163801 | 20 | 188 | 0.0 | 0.0 | 0.00 | 0.00 | 0.00 | 69 | 1016.8 |
| 20260903163744 | 20 | 194 | 0.0 | 0.0 | 0.00 | 0.00 | 0.00 | 69 | 1017.0 |
| 20260903163729 | 20 | 192 | 0.0 | 0.0 | 0.00 | 0.00 | 0.00 | 69 | 1016.8 |
| 20260903163451 | 20 | 192 | 0.0 | 0.0 | 0.00 | 0.00 | 0.00 | 69 | 1016.9 |
| 20260903163140 | 20 | 187 | 0.0 | 0.0 | 0.00 | 0.00 | 0.00 | 69 | 1016.8 |
| 20260903163039 | 21 | 188 | 0.0 | 0.0 | 0.00 | 0.00 | 0.00 | 69 | 1016.6 |
| 20260903162935 | 21 | 196 | 0.0 | 0.0 | 0.00 | 0.00 | 0.00 | 69 | 1016.8 |
| 20260903162913 | 21 | 198 | 0.0 | 0.0 | 0.00 | 0.00 | 0.00 | 69 | 1016.9 |
| 20260903162848 | 21 | 199 | 0.0 | 0.0 | 0.00 | 0.00 | 0.00 | 69 | 1016.8 |
| 20260903162832 | 21 | 199 | 0.0 | 0.0 | 0.00 | 0.00 | 0.00 | 68 | 1016.9 |
| 20260903162815 | 21 | 191 | 0.0 | 1.6 | 0.00 | 0.00 | 0.00 | 68 | 1016.6 |
| 20260903162759 | 21 | 191 | 0.0 | 1.6 | 0.00 | 0.00 | 0.00 | 68 | 1016.6 |
| 20260903162743 | 21 | 190 | 0.0 | 1.6 | 0.00 | 0.00 | 0.00 | 68 | 1016.7 |
| 20260903162516 | 21 | 192 | 0.0 | 1.6 | 0.00 | 0.00 | 0.00 | 68 | 1016.6 |
| 20260903161934 | 21 | 191 | 0.0 | 1.6 | 0.00 | 0.00 | 0.00 | 68 | 1016.8 |
| 20260903161838 | 21 | 187 | 0.0 | 1.6 | 0.00 | 0.00 | 0.00 | 68 | 1016.9 |
| 20260903161813 | 21 | 186 | 0.0 | 1.6 | 0.00 | 0.00 | 0.00 | 67 | 1016.9 |
| 20260903161756 | 21 | 196 | 0.0 | 1.6 | 0.00 | 0.00 | 0.00 | 67 | 1017.0 |
| 20260903161446 | 21 | 203 | 0.0 | 1.6 | 0.00 | 0.00 | 0.00 | 66 | 1016.7 |
| 20260903161439 | 21 | 203 | 0.0 | 1.6 | 0.00 | 0.00 | 0.00 | 67 | 1016.8 |
| 20260903161422 | 21 | 200 | 0.0 | 1.6 | 0.00 | 0.00 | 0.00 | 67 | 1016.9 |
| 20260903161359 | 21 | 195 | 0.0 | 1.6 | 0.00 | 0.00 | 0.00 | 67 | 1016.7 |
| 20260903161342 | 21 | 193 | 0.0 | 1.6 | 0.00 | 0.00 | 0.00 | 67 | 1016.7 |
| 20260903161118 | 21 | 190 | 0.0 | 1.6 | 0.00 | 0.00 | 0.00 | 67 | 1016.7 |
| 20260903161103 | 21 | 192 | 0.0 | 1.6 | 0.00 | 0.00 | 0.00 | 67 | 1017.0 |
| 20260903160818 | 21 | 195 | 0.0 | 1.6 | 0.00 | 0.00 | 0.00 | 67 | 1016.7 |
| 20260903160801 | 21 | 217 | 1.6 | 1.6 | 0.00 | 0.00 | 0.00 | 66 | 1017.0 |
| 20260903160744 | 21 | 194 | 0.0 | 1.6 | 0.00 | 0.00 | 0.00 | 67 | 1016.9 |
| 20260903160723 | 21 | 194 | 0.0 | 1.6 | 0.00 | 0.00 | 0.00 | 67 | 1016.8 |
| 20260903160440 | 21 | 194 | 0.0 | 1.6 | 0.00 | 0.00 | 0.00 | 67 | 1016.9 |
| 20260903160422 | 21 | 190 | 0.0 | 1.6 | 0.00 | 0.00 | 0.00 | 67 | 1016.7 |
| 20260903160147 | 21 | 149 | 0.0 | 1.6 | 0.00 | 0.00 | 0.00 | 67 | 1016.6 |
| 20260903160130 | 21 | 197 | 0.0 | 1.6 | 0.00 | 0.00 | 0.00 | 66 | 1016.8 |
| 20260903160106 | 21 | 203 | 0.0 | 1.6 | 0.00 | 0.00 | 0.00 | 66 | 1016.7 |
| 20260903155535 | 21 | 202 | 0.0 | 1.6 | 0.00 | 0.00 | 0.00 | 66 | 1016.9 |
| 20260903155435 | 21 | 202 | 0.0 | 1.6 | 0.00 | 0.00 | 0.00 | 65 | 1016.7 |
| 20260903155336 | 21 | 187 | 0.0 | 1.6 | 0.00 | 0.00 | 0.00 | 65 | 1016.9 |
| 20260903155235 | 21 | 193 | 0.0 | 1.6 | 0.00 | 0.00 | 0.00 | 65 | 1016.9 |
| 20260903155136 | 21 | 192 | 0.0 | 1.6 | 0.00 | 0.00 | 0.00 | 66 | 1016.9 |
| 20260903155035 | 21 | 176 | 0.0 | 1.6 | 0.00 | 0.00 | 0.00 | 65 | 1016.7 |
| 20260903154935 | 21 | 192 | 0.0 | 1.6 | 0.00 | 0.00 | 0.00 | 66 | 1016.9 |
| 20260903154835 | 21 | 188 | 0.0 | 1.6 | 0.00 | 0.00 | 0.00 | 65 | 1016.8 |
| 20260903154811 | 21 | 196 | 0.0 | 1.6 | 0.00 | 0.00 | 0.00 | 66 | 1017.0 |
| 20260903154755 | 21 | 213 | 0.0 | 1.6 | 0.00 | 0.00 | 0.00 | 66 | 1016.7 |
| 20260903154435 | 21 | 193 | 0.0 | 1.6 | 0.00 | 0.00 | 0.00 | 66 | 1016.9 |
| 20260903154335 | 21 | 192 | 0.0 | 1.6 | 0.00 | 0.00 | 0.00 | 66 | 1016.9 |
| 20260903154236 | 21 | 192 | 0.0 | 1.6 | 0.00 | 0.00 | 0.00 | 66 | 1016.9 |
| 20260903154136 | 21 | 189 | 0.0 | 1.6 | 0.00 | 0.00 | 0.00 | 66 | 1016.8 |
| 20260903154040 | 21 | 171 | 1.6 | 1.6 | 0.00 | 0.00 | 0.00 | 66 | 1016.8 |
| 20260903154023 | 21 | 181 | 0.0 | 1.6 | 0.00 | 0.00 | 0.00 | 65 | 1016.6 |
| 20260903154006 | 21 | 195 | 0.0 | 1.6 | 0.00 | 0.00 | 0.00 | 65 | 1017.0 |
| 20260903153736 | 21 | 199 | 0.0 | 1.6 | 0.00 | 0.00 | 0.00 | 65 | 1017.1 |
| 20260903153636 | 21 | 195 | 0.0 | 1.6 | 0.00 | 0.00 | 0.00 | 65 | 1016.9 |
| 20260903153537 | 21 | 195 | 0.0 | 1.6 | 0.00 | 0.00 | 0.00 | 65 | 1017.1 |
| 20260903153435 | 21 | 193 | 0.0 | 3.2 | 0.00 | 0.00 | 0.00 | 65 | 1016.8 |
| 20260903153335 | 21 | 191 | 0.0 | 3.2 | 0.00 | 0.00 | 0.00 | 65 | 1017.0 |
| 20260903153235 | 21 | 192 | 0.0 | 3.2 | 0.00 | 0.00 | 0.00 | 66 | 1016.8 |
| 20260903153135 | 21 | 192 | 0.0 | 3.2 | 0.00 | 0.00 | 0.00 | 65 | 1017.0 |
| 20260903153036 | 21 | 192 | 0.0 | 3.2 | 0.00 | 0.00 | 0.00 | 66 | 1017.0 |
| 20260903152936 | 21 | 192 | 0.0 | 3.2 | 0.00 | 0.00 | 0.00 | 66 | 1017.1 |
| 20260903152911 | 22 | 196 | 0.0 | 1.6 | 0.00 | 0.00 | 0.00 | 64 | 1017.0 |
| 20260903152906 | 22 | 194 | 0.0 | 1.6 | 0.00 | 0.00 | 0.00 | 66 | 1016.9 |
| 20260903152859 | 22 | 198 | 0.0 | 4.8 | 0.00 | 0.00 | 0.00 | 65 | 1016.9 |
| 20260903152855 | 22 | 200 | 0.0 | 4.8 | 0.00 | 0.00 | 0.00 | 64 | 1016.9 |
| 20260903152847 | 21 | 187 | 0.0 | 3.2 | 0.00 | 0.00 | 0.00 | 66 | 1016.9 |
| 20260903152822 | 21 | 200 | 0.0 | 3.2 | 0.00 | 0.00 | 0.00 | 66 | 1017.0 |
| 20260903152805 | 21 | 195 | 0.0 | 3.2 | 0.00 | 0.00 | 0.00 | 65 | 1017.2 |
| 20260903152750 | 21 | 188 | 0.0 | 3.2 | 0.00 | 0.00 | 0.00 | 65 | 1016.9 |
| 20260903152734 | 22 | 192 | 0.0 | 3.2 | 0.00 | 0.00 | 0.00 | 65 | 1017.0 |
| 20260903152246 | 22 | 191 | 0.0 | 3.2 | 0.00 | 0.00 | 0.00 | 65 | 1016.9 |
| 20260903152231 | 22 | 188 | 0.0 | 3.2 | 0.00 | 0.00 | 0.00 | 66 | 1017.1 |
| 20260903152215 | 22 | 193 | 0.0 | 3.2 | 0.00 | 0.00 | 0.00 | 66 | 1017.1 |
| 20260903151939 | 22 | 193 | 0.0 | 1.6 | 0.00 | 0.00 | 0.00 | 66 | 1017.2 |
| 20260903151915 | 22 | 190 | 0.0 | 1.6 | 0.00 | 0.00 | 0.00 | 65 | 1016.9 |
| 20260903151651 | 22 | 191 | 0.0 | 3.2 | 0.00 | 0.00 | 0.00 | 64 | 1017.1 |
| 20260903151645 | 22 | 194 | 0.0 | 1.6 | 0.00 | 0.00 | 0.00 | 63 | 1017.2 |
| 20260903151640 | 22 | 196 | 0.0 | 1.6 | 0.00 | 0.00 | 0.00 | 65 | 1016.8 |
| 20260903151624 | 22 | 210 | 0.0 | 1.6 | 0.00 | 0.00 | 0.00 | 65 | 1017.0 |
| 20260903151608 | 22 | 193 | 0.0 | 1.6 | 0.00 | 0.00 | 0.00 | 65 | 1016.8 |
| 20260903151553 | 22 | 190 | 0.0 | 1.6 | 0.00 | 0.00 | 0.00 | 65 | 1016.9 |
| 20260903151530 | 22 | 188 | 0.0 | 1.6 | 0.00 | 0.00 | 0.00 | 65 | 1017.1 |
| 20260903151034 | 22 | 152 | 1.6 | 1.6 | 0.00 | 0.00 | 0.00 | 65 | 1016.9 |
| 20260903151018 | 22 | 164 | 1.6 | 1.6 | 0.00 | 0.00 | 0.00 | 65 | 1017.1 |
| 20260903150954 | 22 | 194 | 0.0 | 1.6 | 0.00 | 0.00 | 0.00 | 66 | 1016.9 |
| 20260903150938 | 22 | 204 | 0.0 | 1.6 | 0.00 | 0.00 | 0.00 | 66 | 1017.0 |
| 20260903150917 | 22 | 198 | 0.0 | 1.6 | 0.00 | 0.00 | 0.00 | 66 | 1017.1 |
| 20260903150641 | 22 | 198 | 0.0 | 1.6 | 0.00 | 0.00 | 0.00 | 66 | 1016.9 |
| 20260903150619 | 22 | 194 | 0.0 | 1.6 | 0.00 | 0.00 | 0.00 | 66 | 1016.9 |
| 20260903150351 | 22 | 194 | 0.0 | 1.6 | 0.00 | 0.00 | 0.00 | 66 | 1016.8 |
| 20260903150335 | 22 | 193 | 0.0 | 1.6 | 0.00 | 0.00 | 0.00 | 66 | 1017.0 |
| 20260903150320 | 22 | 196 | 0.0 | 1.6 | 0.00 | 0.00 | 0.00 | 66 | 1017.0 |
| 20260903150303 | 22 | 183 | 0.0 | 1.6 | 0.00 | 0.00 | 0.00 | 66 | 1016.8 |
| 20260903150239 | 22 | 179 | 0.0 | 1.6 | 0.00 | 0.00 | 0.00 | 66 | 1017.2 |
| 20260903150222 | 22 | 192 | 0.0 | 1.6 | 0.00 | 0.00 | 0.00 | 67 | 1017.0 |
| 20260903150206 | 22 | 194 | 0.0 | 1.6 | 0.00 | 0.00 | 0.00 | 66 | 1017.0 |
| 20260903150150 | 22 | 193 | 0.0 | 1.6 | 0.00 | 0.00 | 0.00 | 66 | 1016.9 |
| 20260903145905 | 22 | 118 | 0.0 | 1.6 | 0.00 | 0.00 | 0.00 | 67 | 1017.0 |
| 20260903145849 | 22 | 193 | 0.0 | 1.6 | 0.00 | 0.00 | 0.00 | 66 | 1016.9 |
| 20260903145833 | 22 | 192 | 0.0 | 4.8 | 0.00 | 0.00 | 0.00 | 66 | 1017.1 |
| 20260903145817 | 22 | 168 | 0.0 | 4.8 | 0.00 | 0.00 | 0.00 | 66 | 1016.8 |
| 20260903145801 | 22 | 201 | 0.0 | 4.8 | 0.00 | 0.00 | 0.00 | 66 | 1016.9 |
| 20260903145307 | 22 | 160 | 0.0 | 4.8 | 0.00 | 0.00 | 0.00 | 66 | 1017.2 |
| 20260903145252 | 22 | 199 | 0.0 | 4.8 | 0.00 | 0.00 | 0.00 | 65 | 1017.1 |
| 20260903145235 | 22 | 196 | 0.0 | 4.8 | 0.00 | 0.00 | 0.00 | 65 | 1016.9 |
| 20260903145219 | 22 | 202 | 0.0 | 4.8 | 0.00 | 0.00 | 0.00 | 65 | 1016.9 |
| 20260903145201 | 22 | 200 | 0.0 | 4.8 | 0.00 | 0.00 | 0.00 | 64 | 1016.9 |
| 20260903144936 | 22 | 202 | 0.0 | 4.8 | 0.00 | 0.00 | 0.00 | 64 | 1017.2 |
| 20260903144919 | 22 | 196 | 0.0 | 1.6 | 0.00 | 0.00 | 0.00 | 64 | 1017.0 |
| 20260903144643 | 22 | 194 | 0.0 | 1.6 | 0.00 | 0.00 | 0.00 | 64 | 1017.3 |
| 20260903144624 | 22 | 196 | 0.0 | 1.6 | 0.00 | 0.00 | 0.00 | 64 | 1017.0 |
| 20260903144359 | 22 | 203 | 0.0 | 3.2 | 0.00 | 0.00 | 0.00 | 64 | 1017.1 |
| 20260903144343 | 22 | 209 | 0.0 | 3.2 | 0.00 | 0.00 | 0.00 | 64 | 1017.1 |
| 20260903144326 | 22 | 197 | 0.0 | 3.2 | 0.00 | 0.00 | 0.00 | 64 | 1017.2 |
| 20260903144310 | 22 | 192 | 0.0 | 3.2 | 0.00 | 0.00 | 0.00 | 64 | 1017.0 |
| 20260903144253 | 22 | 191 | 0.0 | 3.2 | 0.00 | 0.00 | 0.00 | 64 | 1017.1 |
| 20260903143808 | 22 | 201 | 0.0 | 3.2 | 0.00 | 0.00 | 0.00 | 64 | 1016.8 |
| 20260903143530 | 22 | 199 | 0.0 | 3.2 | 0.00 | 0.00 | 0.00 | 64 | 1017.0 |
| 20260903143506 | 22 | 204 | 0.0 | 3.2 | 0.00 | 0.00 | 0.00 | 64 | 1017.1 |
| 20260903143451 | 22 | 198 | 0.0 | 3.2 | 0.00 | 0.00 | 0.00 | 64 | 1017.1 |
| 20260903143435 | 22 | 124 | 0.0 | 3.2 | 0.00 | 0.00 | 0.00 | 64 | 1016.9 |
| 20260903143159 | 22 | 175 | 0.0 | 1.6 | 0.00 | 0.00 | 0.00 | 64 | 1017.1 |
| 20260903143137 | 22 | 196 | 0.0 | 1.6 | 0.00 | 0.00 | 0.00 | 64 | 1017.2 |
| 20260903142901 | 22 | 189 | 0.0 | 1.6 | 0.00 | 0.00 | 0.00 | 63 | 1017.1 |
| 20260903142845 | 22 | 195 | 0.0 | 1.6 | 0.00 | 0.00 | 0.00 | 64 | 1017.2 |
| 20260903142830 | 22 | 200 | 0.0 | 3.2 | 0.00 | 0.00 | 0.00 | 63 | 1017.1 |
| 20260903142602 | 22 | 196 | 0.0 | 3.2 | 0.00 | 0.00 | 0.00 | 64 | 1017.2 |
| 20260903142545 | 22 | 194 | 0.0 | 3.2 | 0.00 | 0.00 | 0.00 | 64 | 1017.1 |
| 20260903142310 | 22 | 181 | 0.0 | 3.2 | 0.00 | 0.00 | 0.00 | 64 | 1017.5 |
| 20260903141823 | 22 | 191 | 0.0 | 3.2 | 0.00 | 0.00 | 0.00 | 65 | 1017.5 |
| 20260903141806 | 22 | 159 | 0.0 | 3.2 | 0.00 | 0.00 | 0.00 | 64 | 1017.4 |
| 20260903141529 | 22 | 191 | 0.0 | 3.2 | 0.00 | 0.00 | 0.00 | 64 | 1017.1 |
| 20260903141248 | 22 | 194 | 0.0 | 1.6 | 0.00 | 0.00 | 0.00 | 63 | 1017.2 |
| 20260903141021 | 22 | 196 | 0.0 | 1.6 | 0.00 | 0.00 | 0.00 | 63 | 1017.4 |
| 20260903140746 | 22 | 184 | 0.0 | 1.6 | 0.00 | 0.00 | 0.00 | 63 | 1017.3 |
| 20260903140259 | 22 | 195 | 0.0 | 3.2 | 0.00 | 0.00 | 0.00 | 63 | 1017.3 |
| 20260903140243 | 22 | 208 | 0.0 | 3.2 | 0.00 | 0.00 | 0.00 | 62 | 1017.1 |
| 20260903135923 | 22 | 193 | 0.0 | 3.2 | 0.00 | 0.00 | 0.00 | 62 | 1017.0 |
| 20260903135823 | 23 | 196 | 0.0 | 3.2 | 0.00 | 0.00 | 0.00 | 62 | 1017.3 |
| 20260903135724 | 23 | 183 | 1.6 | 3.2 | 0.00 | 0.00 | 0.00 | 61 | 1017.3 |
| 20260903135523 | 23 | 196 | 0.0 | 3.2 | 0.00 | 0.00 | 0.00 | 60 | 1017.1 |
| 20260903135506 | 23 | 194 | 0.0 | 3.2 | 0.00 | 0.00 | 0.00 | 61 | 1017.3 |
| 20260903135451 | 23 | 213 | 0.0 | 3.2 | 0.00 | 0.00 | 0.00 | 61 | 1017.4 |
| 20260903135223 | 23 | 194 | 0.0 | 3.2 | 0.00 | 0.00 | 0.00 | 62 | 1017.2 |
| 20260903135158 | 23 | 199 | 0.0 | 3.2 | 0.00 | 0.00 | 0.00 | 62 | 1017.4 |
| 20260903135142 | 23 | 215 | 1.6 | 3.2 | 0.00 | 0.00 | 0.00 | 61 | 1017.3 |
| 20260903134825 | 23 | 192 | 0.0 | 3.2 | 0.00 | 0.00 | 0.00 | 61 | 1017.4 |
| 20260903134724 | 23 | 213 | 0.0 | 3.2 | 0.00 | 0.00 | 0.00 | 61 | 1017.0 |
| 20260903134623 | 23 | 198 | 0.0 | 3.2 | 0.00 | 0.00 | 0.00 | 60 | 1017.2 |
| 20260903134527 | 23 | 194 | 0.0 | 3.2 | 0.00 | 0.00 | 0.00 | 60 | 1017.3 |
| 20260903134523 | 23 | 196 | 0.0 | 3.2 | 0.00 | 0.00 | 0.00 | 61 | 1017.0 |
| 20260903134507 | 23 | 202 | 0.0 | 3.2 | 0.00 | 0.00 | 0.00 | 60 | 1017.2 |
| 20260903134451 | 23 | 196 | 0.0 | 3.2 | 0.00 | 0.00 | 0.00 | 60 | 1017.2 |
| 20260903134434 | 23 | 194 | 0.0 | 3.2 | 0.00 | 0.00 | 0.00 | 60 | 1017.3 |
| 20260903134124 | 23 | 203 | 0.0 | 6.4 | 0.00 | 0.00 | 0.00 | 59 | 1017.2 |
| 20260903134023 | 23 | 198 | 0.0 | 6.4 | 0.00 | 0.00 | 0.00 | 59 | 1017.2 |
| 20260903133922 | 23 | 188 | 0.0 | 6.4 | 0.00 | 0.00 | 0.00 | 59 | 1017.2 |
| 20260903133823 | 23 | 196 | 0.0 | 6.4 | 0.00 | 0.00 | 0.00 | 59 | 1017.4 |
| 20260903133723 | 23 | 198 | 0.0 | 6.4 | 0.00 | 0.00 | 0.00 | 60 | 1017.2 |
| 20260903133700 | 23 | 199 | 0.0 | 6.4 | 0.00 | 0.00 | 0.00 | 60 | 1017.0 |
| 20260903133644 | 23 | 198 | 0.0 | 6.4 | 0.00 | 0.00 | 0.00 | 60 | 1017.1 |
| 20260903133323 | 23 | 213 | 0.0 | 6.4 | 0.00 | 0.00 | 0.00 | 58 | 1017.3 |
| 20260903133223 | 23 | 179 | 3.2 | 6.4 | 0.00 | 0.00 | 0.00 | 58 | 1017.1 |
| 20260903133159 | 23 | 199 | 0.0 | 4.8 | 0.00 | 0.00 | 0.00 | 59 | 1017.1 |
| 20260903133143 | 23 | 205 | 0.0 | 3.2 | 0.00 | 0.00 | 0.00 | 59 | 1017.3 |
| 20260903132823 | 23 | 196 | 0.0 | 12.9 | 0.00 | 0.00 | 0.00 | 59 | 1017.3 |
| 20260903132723 | 23 | 195 | 0.0 | 12.9 | 0.00 | 0.00 | 0.00 | 59 | 1017.1 |
| 20260903132624 | 23 | 130 | 0.0 | 12.9 | 0.00 | 0.00 | 0.00 | 60 | 1017.0 |
| 20260903132524 | 23 | 200 | 0.0 | 12.9 | 0.00 | 0.00 | 0.00 | 60 | 1017.4 |
| 20260903132423 | 23 | 192 | 0.0 | 12.9 | 0.00 | 0.00 | 0.00 | 60 | 1017.0 |
| 20260903132324 | 23 | 199 | 0.0 | 12.9 | 0.00 | 0.00 | 0.00 | 60 | 1017.2 |
| 20260903132223 | 23 | 196 | 0.0 | 12.9 | 0.00 | 0.00 | 0.00 | 61 | 1017.1 |
| 20260903132123 | 23 | 199 | 0.0 | 12.9 | 0.00 | 0.00 | 0.00 | 60 | 1017.1 |
| 20260903132023 | 23 | 216 | 6.4 | 12.9 | 0.00 | 0.00 | 0.00 | 60 | 1017.0 |
| 20260903131923 | 23 | 213 | 1.6 | 4.8 | 0.00 | 0.00 | 0.00 | 61 | 1017.0 |
| 20260903131823 | 23 | 183 | 0.0 | 3.2 | 0.00 | 0.00 | 0.00 | 61 | 1017.3 |
| 20260903131725 | 23 | 196 | 0.0 | 3.2 | 0.00 | 0.00 | 0.00 | 61 | 1016.9 |
| 20260903131623 | 23 | 197 | 0.0 | 3.2 | 0.00 | 0.00 | 0.00 | 62 | 1017.3 |
| 20260903131600 | 23 | 192 | 1.6 | 3.2 | 0.00 | 0.00 | 0.00 | 63 | 1017.4 |
| 20260903131544 | 23 | 203 | 0.0 | 3.2 | 0.00 | 0.00 | 0.00 | 62 | 1017.5 |
| 20260903131527 | 23 | 191 | 0.0 | 1.6 | 0.00 | 0.00 | 0.00 | 62 | 1017.3 |
| 20260903131301 | 23 | 203 | 0.0 | 1.6 | 0.00 | 0.00 | 0.00 | 62 | 1017.2 |
| 20260903131245 | 23 | 198 | 0.0 | 1.6 | 0.00 | 0.00 | 0.00 | 62 | 1017.4 |
| 20260903131228 | 23 | 199 | 0.0 | 1.6 | 0.00 | 0.00 | 0.00 | 62 | 1017.3 |
| 20260903130952 | 23 | 194 | 0.0 | 6.4 | 0.00 | 0.00 | 0.00 | 63 | 1017.3 |
| 20260903130723 | 23 | 200 | 0.0 | 6.4 | 0.00 | 0.00 | 0.00 | 63 | 1017.3 |
| 20260903130623 | 23 | 196 | 0.0 | 6.4 | 0.00 | 0.00 | 0.00 | 63 | 1017.4 |
| 20260903130523 | 22 | 202 | 0.0 | 6.4 | 0.00 | 0.00 | 0.00 | 62 | 1017.3 |
| 20260903130423 | 22 | 209 | 0.0 | 6.4 | 0.00 | 0.00 | 0.00 | 62 | 1017.3 |
| 20260903130324 | 22 | 191 | 0.0 | 6.4 | 0.00 | 0.00 | 0.00 | 62 | 1017.3 |
| 20260903130223 | 22 | 202 | 0.0 | 6.4 | 0.00 | 0.00 | 0.00 | 62 | 1017.6 |
| 20260903130123 | 22 | 199 | 0.0 | 6.4 | 0.00 | 0.00 | 0.00 | 62 | 1017.2 |
| 20260903130058 | 23 | 226 | 3.2 | 4.8 | 0.00 | 0.00 | 0.00 | 62 | 1017.3 |
| 20260903130042 | 23 | 195 | 0.0 | 4.8 | 0.00 | 0.00 | 0.00 | 64 | 1017.3 |
| 20260903125723 | 23 | 199 | 0.0 | 4.8 | 0.00 | 0.00 | 0.00 | 63 | 1017.5 |
| 20260903125623 | 23 | 196 | 0.0 | 4.8 | 0.00 | 0.00 | 0.00 | 63 | 1017.5 |
| 20260903125602 | 22 | 154 | 0.0 | 4.8 | 0.00 | 0.00 | 0.00 | 62 | 1017.5 |
| 20260903125553 | 23 | 197 | 0.0 | 4.8 | 0.00 | 0.00 | 0.00 | 64 | 1017.5 |
| 20260903125536 | 22 | 199 | 0.0 | 4.8 | 0.00 | 0.00 | 0.00 | 64 | 1017.5 |
| 20260903125520 | 22 | 203 | 3.2 | 4.8 | 0.00 | 0.00 | 0.00 | 62 | 1017.5 |
| 20260903125254 | 23 | 196 | 1.6 | 6.4 | 0.00 | 0.00 | 0.00 | 63 | 1017.8 |
| 20260903125238 | 23 | 202 | 0.0 | 6.4 | 0.00 | 0.00 | 0.00 | 63 | 1017.5 |
| 20260903125222 | 22 | 200 | 1.6 | 6.4 | 0.00 | 0.00 | 0.00 | 62 | 1017.7 |
| 20260903124946 | 22 | 198 | 0.0 | 6.4 | 0.00 | 0.00 | 0.00 | 62 | 1017.5 |
| 20260903124922 | 22 | 199 | 0.0 | 6.4 | 0.00 | 0.00 | 0.00 | 62 | 1017.6 |
| 20260903124657 | 22 | 193 | 0.0 | 6.4 | 0.00 | 0.00 | 0.00 | 63 | 1017.5 |
| 20260903124642 | 22 | 190 | 0.0 | 6.4 | 0.00 | 0.00 | 0.00 | 63 | 1017.2 |
| 20260903124626 | 22 | 201 | 0.0 | 6.4 | 0.00 | 0.00 | 0.00 | 62 | 1017.5 |
| 20260903124610 | 22 | 242 | 3.2 | 6.4 | 0.00 | 0.00 | 0.00 | 62 | 1017.6 |
| 20260903124553 | 22 | 154 | 0.0 | 4.8 | 0.00 | 0.00 | 0.00 | 62 | 1017.5 |
| 20260903124023 | 22 | 203 | 0.0 | 4.8 | 0.00 | 0.00 | 0.00 | 64 | 1017.5 |
| 20260903123923 | 23 | 195 | 0.0 | 4.8 | 0.00 | 0.00 | 0.00 | 64 | 1017.2 |
| 20260903123823 | 23 | 196 | 0.0 | 0.0 | 0.00 | 0.00 | 0.00 | 64 | 1017.6 |
| 20260903123724 | 23 | 211 | 0.0 | 3.2 | 0.00 | 0.00 | 0.00 | 65 | 1017.5 |
| 20260903123623 | 23 | 199 | 0.0 | 3.2 | 0.00 | 0.00 | 0.00 | 66 | 1017.6 |
| 20260903123523 | 23 | 201 | 0.0 | 3.2 | 0.00 | 0.00 | 0.00 | 65 | 1017.8 |
| 20260903123458 | 23 | 199 | 0.0 | 3.2 | 0.00 | 0.00 | 0.00 | 65 | 1017.7 |
| 20260903123442 | 23 | 200 | 0.0 | 3.2 | 0.00 | 0.00 | 0.00 | 65 | 1017.6 |
| 20260903123420 | 22 | 197 | 0.0 | 3.2 | 0.00 | 0.00 | 0.00 | 65 | 1017.7 |
| 20260903123404 | 22 | 198 | 0.0 | 3.2 | 0.00 | 0.00 | 0.00 | 65 | 1017.7 |
| 20260903122901 | 23 | 190 | 0.0 | 3.2 | 0.00 | 0.00 | 0.00 | 65 | 1017.4 |
| 20260903122835 | 23 | 215 | 1.6 | 3.2 | 0.00 | 0.00 | 0.00 | 65 | 1017.7 |
| 20260903122819 | 23 | 205 | 0.0 | 1.6 | 0.00 | 0.00 | 0.00 | 65 | 1017.6 |
| 20260903122803 | 23 | 200 | 0.0 | 1.6 | 0.00 | 0.00 | 0.00 | 64 | 1017.8 |
| 20260903122747 | 23 | 194 | 0.0 | 4.8 | 0.00 | 0.00 | 0.00 | 64 | 1017.6 |
| 20260903122305 | 23 | 200 | 0.0 | 9.7 | 0.00 | 0.00 | 0.00 | 64 | 1017.5 |
| 20260903122245 | 23 | 196 | 0.0 | 9.7 | 0.00 | 0.00 | 0.00 | 64 | 1017.7 |
| 20260903122008 | 23 | 174 | 0.0 | 9.7 | 0.00 | 0.00 | 0.00 | 65 | 1017.7 |
| 20260903121952 | 22 | 198 | 0.0 | 9.7 | 0.00 | 0.00 | 0.00 | 65 | 1017.7 |
| 20260903121724 | 22 | 200 | 0.0 | 9.7 | 0.00 | 0.00 | 0.00 | 65 | 1017.6 |
| 20260903121623 | 22 | 208 | 0.0 | 9.7 | 0.00 | 0.00 | 0.00 | 65 | 1017.7 |
| 20260903121559 | 23 | 202 | 1.6 | 9.7 | 0.00 | 0.00 | 0.00 | 64 | 1017.6 |
| 20260903121543 | 23 | 206 | 3.2 | 9.7 | 0.00 | 0.00 | 0.00 | 64 | 1017.6 |
| 20260903121222 | 23 | 205 | 1.6 | 1.6 | 0.00 | 0.00 | 0.00 | 64 | 1017.7 |
| 20260903121125 | 23 | 205 | 0.0 | 1.6 | 0.00 | 0.00 | 0.00 | 65 | 1017.5 |
| 20260903121059 | 23 | 199 | 0.0 | 1.6 | 0.00 | 0.00 | 0.00 | 64 | 1017.7 |
| 20260903121043 | 23 | 202 | 0.0 | 1.6 | 0.00 | 0.00 | 0.00 | 66 | 1017.5 |
| 20260903120723 | 23 | 198 | 0.0 | 1.6 | 0.00 | 0.00 | 0.00 | 65 | 1017.8 |
| 20260903120623 | 23 | 196 | 0.0 | 1.6 | 0.00 | 0.00 | 0.00 | 66 | 1017.6 |
| 20260903120522 | 23 | 202 | 0.0 | 1.6 | 0.00 | 0.00 | 0.00 | 65 | 1017.8 |
| 20260903120424 | 23 | 202 | 0.0 | 1.6 | 0.00 | 0.00 | 0.00 | 64 | 1017.7 |
| 20260903120323 | 23 | 202 | 0.0 | 1.6 | 0.00 | 0.00 | 0.00 | 63 | 1017.8 |
| 20260903120223 | 23 | 196 | 0.0 | 1.6 | 0.00 | 0.00 | 0.00 | 63 | 1017.8 |
| 20260903120124 | 23 | 195 | 0.0 | 1.6 | 0.00 | 0.00 | 0.00 | 62 | 1017.8 |
| 20260903120058 | 23 | 196 | 0.0 | 1.6 | 0.00 | 0.00 | 0.00 | 63 | 1017.8 |
| 20260903120043 | 23 | 202 | 0.0 | 1.6 | 0.00 | 0.00 | 0.00 | 62 | 1017.9 |
| 20260903115723 | 23 | 199 | 0.0 | 1.6 | 0.00 | 0.00 | 0.00 | 63 | 1017.8 |
| 20260903115622 | 23 | 201 | 0.0 | 1.6 | 0.00 | 0.00 | 0.00 | 63 | 1017.8 |
| 20260903115525 | 23 | 206 | 0.0 | 1.6 | 0.00 | 0.00 | 0.00 | 63 | 1017.9 |
| 20260903115423 | 23 | 196 | 0.0 | 1.6 | 0.00 | 0.00 | 0.00 | 64 | 1017.8 |
| 20260903115357 | 23 | 191 | 0.0 | 1.6 | 0.00 | 0.00 | 0.00 | 65 | 1017.9 |
| 20260903115335 | 23 | 201 | 0.0 | 1.6 | 0.00 | 0.00 | 0.00 | 64 | 1017.6 |
| 20260903115319 | 23 | 198 | 0.0 | 1.6 | 0.00 | 0.00 | 0.00 | 64 | 1017.8 |
| 20260903115043 | 23 | 196 | 0.0 | 1.6 | 0.00 | 0.00 | 0.00 | 64 | 1017.9 |
| 20260903114723 | 23 | 194 | 0.0 | 1.6 | 0.00 | 0.00 | 0.00 | 64 | 1017.8 |
| 20260903114623 | 23 | 200 | 0.0 | 1.6 | 0.00 | 0.00 | 0.00 | 64 | 1017.7 |
| 20260903114527 | 23 | 196 | 0.0 | 3.2 | 0.00 | 0.00 | 0.00 | 65 | 1017.8 |
| 20260903114522 | 23 | 175 | 0.0 | 0.0 | 0.00 | 0.00 | 0.00 | 65 | 1017.9 |
| 20260903114507 | 23 | 202 | 0.0 | 0.0 | 0.00 | 0.00 | 0.00 | 65 | 1017.9 |
| 20260903114450 | 23 | 198 | 0.0 | 3.2 | 0.00 | 0.00 | 0.00 | 64 | 1017.6 |
| 20260903114432 | 23 | 196 | 0.0 | 3.2 | 0.00 | 0.00 | 0.00 | 65 | 1017.8 |
| 20260903114200 | 23 | 199 | 0.0 | 3.2 | 0.00 | 0.00 | 0.00 | 65 | 1017.8 |
| 20260903114144 | 22 | 198 | 0.0 | 3.2 | 0.00 | 0.00 | 0.00 | 64 | 1017.8 |
| 20260903114127 | 22 | 199 | 0.0 | 3.2 | 0.00 | 0.00 | 0.00 | 64 | 1017.8 |
| 20260903113843 | 22 | 197 | 0.0 | 3.2 | 0.00 | 0.00 | 0.00 | 65 | 1017.8 |
| 20260903113523 | 22 | 201 | 0.0 | 3.2 | 0.00 | 0.00 | 0.00 | 65 | 1017.7 |
| 20260903113423 | 22 | 201 | 0.0 | 3.2 | 0.00 | 0.00 | 0.00 | 65 | 1018.0 |
| 20260903113323 | 22 | 192 | 0.0 | 3.2 | 0.00 | 0.00 | 0.00 | 65 | 1018.1 |
| 20260903113223 | 23 | 192 | 0.0 | 3.2 | 0.00 | 0.00 | 0.00 | 65 | 1018.0 |
| 20260903113124 | 23 | 198 | 0.0 | 3.2 | 0.00 | 0.00 | 0.00 | 66 | 1017.9 |
| 20260903113023 | 23 | 197 | 0.0 | 3.2 | 0.00 | 0.00 | 0.00 | 66 | 1017.9 |
| 20260903112924 | 23 | 201 | 0.0 | 3.2 | 0.00 | 0.00 | 0.00 | 64 | 1017.8 |
| 20260903112824 | 23 | 205 | 0.0 | 3.2 | 0.00 | 0.00 | 0.00 | 64 | 1017.8 |
| 20260903112723 | 23 | 182 | 0.0 | 3.2 | 0.00 | 0.00 | 0.00 | 65 | 1018.0 |
| 20260903112623 | 23 | 205 | 1.6 | 3.2 | 0.00 | 0.00 | 0.00 | 65 | 1018.0 |
| 20260903112610 | 22 | 199 | 0.0 | 3.2 | 0.00 | 0.00 | 0.00 | 65 | 1017.9 |
| 20260903112601 | 23 | 197 | 0.0 | 3.2 | 0.00 | 0.00 | 0.00 | 64 | 1018.0 |
| 20260903112545 | 23 | 230 | 1.6 | 3.2 | 0.00 | 0.00 | 0.00 | 64 | 1017.8 |
| 20260903112528 | 23 | 199 | 0.0 | 1.6 | 0.00 | 0.00 | 0.00 | 65 | 1018.0 |
| 20260903112305 | 23 | 194 | 0.0 | 1.6 | 0.00 | 0.00 | 0.00 | 65 | 1018.1 |
| 20260903112245 | 22 | 200 | 0.0 | 3.2 | 0.00 | 0.00 | 0.00 | 65 | 1018.0 |
| 20260903112008 | 22 | 195 | 0.0 | 3.2 | 0.00 | 0.00 | 0.00 | 64 | 1018.0 |
| 20260903111952 | 22 | 197 | 0.0 | 3.2 | 0.00 | 0.00 | 0.00 | 65 | 1018.0 |
| 20260903111933 | 22 | 199 | 0.0 | 3.2 | 0.00 | 0.00 | 0.00 | 65 | 1017.9 |
| 20260903111624 | 22 | 187 | 0.0 | 3.2 | 0.00 | 0.00 | 0.00 | 66 | 1018.0 |
| 20260903111523 | 22 | 198 | 0.0 | 3.2 | 0.00 | 0.00 | 0.00 | 66 | 1018.0 |
| 20260903111506 | 22 | 188 | 0.0 | 3.2 | 0.00 | 0.00 | 0.00 | 65 | 1017.8 |
| 20260903111451 | 22 | 203 | 0.0 | 3.2 | 0.00 | 0.00 | 0.00 | 66 | 1018.0 |
| 20260903111223 | 22 | 200 | 1.6 | 3.2 | 0.00 | 0.00 | 0.00 | 65 | 1018.1 |
| 20260903111123 | 22 | 216 | 0.0 | 1.6 | 0.00 | 0.00 | 0.00 | 66 | 1017.9 |
| 20260903111023 | 22 | 192 | 0.0 | 1.6 | 0.00 | 0.00 | 0.00 | 66 | 1018.0 |
| 20260903110923 | 22 | 197 | 0.0 | 1.6 | 0.00 | 0.00 | 0.00 | 66 | 1017.9 |
| 20260903110825 | 22 | 195 | 0.0 | 1.6 | 0.00 | 0.00 | 0.00 | 67 | 1017.8 |
| 20260903110723 | 22 | 180 | 0.0 | 1.6 | 0.00 | 0.00 | 0.00 | 66 | 1018.0 |
| 20260903110624 | 22 | 175 | 0.0 | 1.6 | 0.00 | 0.00 | 0.00 | 67 | 1018.0 |
| 20260903110523 | 22 | 192 | 0.0 | 1.6 | 0.00 | 0.00 | 0.00 | 65 | 1018.0 |
| 20260903110423 | 22 | 191 | 0.0 | 1.6 | 0.00 | 0.00 | 0.00 | 65 | 1018.0 |
| 20260903110328 | 23 | 197 | 0.0 | 3.2 | 0.00 | 0.00 | 0.00 | 64 | 1018.3 |
| 20260903110324 | 22 | 194 | 0.0 | 1.6 | 0.00 | 0.00 | 0.00 | 65 | 1018.0 |
| 20260903110301 | 23 | 185 | 0.0 | 1.6 | 0.00 | 0.00 | 0.00 | 65 | 1017.7 |
| 20260903110244 | 23 | 204 | 0.0 | 1.6 | 0.00 | 0.00 | 0.00 | 65 | 1017.9 |
| 20260903110228 | 23 | 203 | 0.0 | 1.6 | 0.00 | 0.00 | 0.00 | 65 | 1018.2 |
| 20260903110212 | 23 | 198 | 0.0 | 1.6 | 0.00 | 0.00 | 0.00 | 64 | 1018.0 |
| 20260903110156 | 23 | 198 | 0.0 | 1.6 | 0.00 | 0.00 | 0.00 | 64 | 1017.8 |
| 20260903105624 | 23 | 198 | 0.0 | 3.2 | 0.00 | 0.00 | 0.00 | 64 | 1018.1 |
| 20260903105559 | 23 | 203 | 0.0 | 3.2 | 0.00 | 0.00 | 0.00 | 63 | 1018.0 |
| 20260903105544 | 23 | 208 | 0.0 | 3.2 | 0.00 | 0.00 | 0.00 | 63 | 1018.2 |
| 20260903105224 | 23 | 198 | 0.0 | 3.2 | 0.00 | 0.00 | 0.00 | 66 | 1018.2 |
| 20260903105159 | 22 | 201 | 0.0 | 3.2 | 0.00 | 0.00 | 0.00 | 65 | 1018.2 |
| 20260903105143 | 22 | 194 | 0.0 | 3.2 | 0.00 | 0.00 | 0.00 | 65 | 1018.1 |
| 20260903104823 | 22 | 192 | 0.0 | 3.2 | 0.00 | 0.00 | 0.00 | 65 | 1018.1 |
| 20260903104735 | 23 | 255 | 1.6 | 1.6 | 0.00 | 0.00 | 0.00 | 64 | 1018.0 |
| 20260903104712 | 22 | 201 | 0.0 | 3.2 | 0.00 | 0.00 | 0.00 | 65 | 1018.4 |
| 20260903104708 | 23 | 195 | 0.0 | 11.3 | 0.00 | 0.00 | 0.00 | 61 | 1018.2 |
| 20260903104702 | 24 | 205 | 3.2 | 6.4 | 0.00 | 0.00 | 0.00 | 61 | 1018.3 |
| 20260903104658 | 25 | 201 | 0.0 | 4.8 | 0.00 | 0.00 | 0.00 | 61 | 1018.5 |
| 20260903104650 | 23 | 203 | 1.6 | 1.6 | 0.00 | 0.00 | 0.00 | 63 | 1018.0 |
| 20260903104634 | 23 | 127 | 0.0 | 1.6 | 0.00 | 0.00 | 0.00 | 63 | 1018.1 |
| 20260903104619 | 23 | 190 | 0.0 | 1.6 | 0.00 | 0.00 | 0.00 | 63 | 1018.2 |
| 20260903104603 | 23 | 191 | 0.0 | 1.6 | 0.00 | 0.00 | 0.00 | 62 | 1018.1 |
| 20260903104541 | 23 | 199 | 0.0 | 1.6 | 0.00 | 0.00 | 0.00 | 64 | 1018.0 |
| 20260903104524 | 23 | 195 | 0.0 | 1.6 | 0.00 | 0.00 | 0.00 | 64 | 1017.9 |
| 20260903104508 | 23 | 195 | 0.0 | 1.6 | 0.00 | 0.00 | 0.00 | 64 | 1018.1 |
| 20260903104004 | 23 | 189 | 0.0 | 1.6 | 0.00 | 0.00 | 0.00 | 65 | 1018.0 |
| 20260903103948 | 23 | 198 | 0.0 | 1.6 | 0.00 | 0.00 | 0.00 | 65 | 1018.2 |
| 20260903103932 | 23 | 176 | 1.6 | 1.6 | 0.00 | 0.00 | 0.00 | 64 | 1018.2 |
| 20260903103656 | 22 | 197 | 0.0 | 1.6 | 0.00 | 0.00 | 0.00 | 65 | 1017.8 |
| 20260903103633 | 22 | 194 | 0.0 | 1.6 | 0.00 | 0.00 | 0.00 | 64 | 1018.0 |
| 20260903103618 | 23 | 183 | 0.0 | 1.6 | 0.00 | 0.00 | 0.00 | 63 | 1017.9 |
| 20260903103602 | 23 | 171 | 0.0 | 1.6 | 0.00 | 0.00 | 0.00 | 63 | 1018.0 |
| 20260903103547 | 23 | 202 | 0.0 | 1.6 | 0.00 | 0.00 | 0.00 | 63 | 1018.4 |
| 20260903103531 | 23 | 200 | 0.0 | 1.6 | 0.00 | 0.00 | 0.00 | 63 | 1018.2 |
| 20260903103507 | 22 | 202 | 0.0 | 1.6 | 0.00 | 0.00 | 0.00 | 63 | 1018.2 |
| 20260903103231 | 22 | 198 | 0.0 | 3.2 | 0.00 | 0.00 | 0.00 | 65 | 1018.2 |
| 20260903103215 | 22 | 200 | 0.0 | 3.2 | 0.00 | 0.00 | 0.00 | 65 | 1018.1 |
| 20260903103159 | 22 | 201 | 0.0 | 3.2 | 0.00 | 0.00 | 0.00 | 65 | 1018.3 |
| 20260903103142 | 22 | 201 | 0.0 | 3.2 | 0.00 | 0.00 | 0.00 | 65 | 1018.4 |
| 20260903102916 | 22 | 192 | 0.0 | 3.2 | 0.00 | 0.00 | 0.00 | 65 | 1018.1 |
| 20260903102900 | 22 | 194 | 0.0 | 3.2 | 0.00 | 0.00 | 0.00 | 65 | 1018.1 |
| 20260903102844 | 23 | 184 | 0.0 | 6.4 | 0.00 | 0.00 | 0.00 | 63 | 1018.1 |
| 20260903102135 | 24 | 200 | 0.0 | 11.3 | 0.00 | 0.00 | 0.00 | 63 | 1018.3 |
| 20260903102119 | 24 | 207 | 0.0 | 11.3 | 0.00 | 0.00 | 0.00 | 60 | 1018.5 |
| 20260903102102 | 24 | 206 | 1.6 | 11.3 | 0.00 | 0.00 | 0.00 | 61 | 1018.7 |
| 20260903102046 | 23 | 205 | 0.0 | 11.3 | 0.00 | 0.00 | 0.00 | 62 | 1018.4 |
| 20260903101820 | 23 | 203 | 0.0 | 11.3 | 0.00 | 0.00 | 0.00 | 63 | 1018.7 |
| 20260903101804 | 23 | 201 | 0.0 | 11.3 | 0.00 | 0.00 | 0.00 | 62 | 1018.4 |
| 20260903101308 | 24 | 203 | 0.0 | 6.4 | 0.00 | 0.00 | 0.00 | 60 | 1018.2 |
| 20260903101039 | 24 | 203 | 0.0 | 6.4 | 0.00 | 0.00 | 0.00 | 60 | 1018.2 |
| 20260903101022 | 24 | 193 | 0.0 | 6.4 | 0.00 | 0.00 | 0.00 | 61 | 1018.2 |
| 20260903101006 | 24 | 203 | 1.6 | 6.4 | 0.00 | 0.00 | 0.00 | 61 | 1018.3 |
| 20260903100950 | 24 | 224 | 4.8 | 6.4 | 0.00 | 0.00 | 0.00 | 60 | 1018.0 |
| 20260903100934 | 24 | 222 | 1.6 | 6.4 | 0.00 | 0.00 | 0.00 | 60 | 1018.2 |
| 20260903100227 | 24 | 201 | 0.0 | 3.2 | 0.00 | 0.00 | 0.00 | 62 | 1018.2 |
| 20260903095951 | 24 | 196 | 1.6 | 3.2 | 0.00 | 0.00 | 0.00 | 60 | 1018.4 |
| 20260903095932 | 25 | 201 | 0.0 | 4.8 | 0.00 | 0.00 | 0.00 | 61 | 1018.5 |
| 20260903095623 | 25 | 218 | 0.0 | 4.8 | 0.00 | 0.00 | 0.00 | 58 | 1018.3 |
| 20260903095559 | 25 | 199 | 0.0 | 4.8 | 0.00 | 0.00 | 0.00 | 59 | 1018.7 |
| 20260903095543 | 25 | 204 | 0.0 | 4.8 | 0.00 | 0.00 | 0.00 | 60 | 1018.5 |
| 20260903095223 | 25 | 194 | 0.0 | 4.8 | 0.00 | 0.00 | 0.00 | 59 | 1018.9 |
| 20260903095122 | 25 | 199 | 0.0 | 4.8 | 0.00 | 0.00 | 0.00 | 60 | 1018.7 |
| 20260903095023 | 25 | 207 | 0.0 | 4.8 | 0.00 | 0.00 | 0.00 | 59 | 1018.4 |
| 20260903094923 | 24 | 223 | 1.6 | 4.8 | 0.00 | 0.00 | 0.00 | 59 | 1018.9 |
| 20260903094823 | 24 | 200 | 0.0 | 4.8 | 0.00 | 0.00 | 0.00 | 60 | 1018.8 |
| 20260903094725 | 24 | 201 | 0.0 | 3.2 | 0.00 | 0.00 | 0.00 | 62 | 1018.5 |
| 20260903094622 | 24 | 201 | 0.0 | 3.2 | 0.00 | 0.00 | 0.00 | 63 | 1018.8 |
| 20260903094527 | 23 | 201 | 0.0 | 3.2 | 0.00 | 0.00 | 0.00 | 62 | 1018.7 |
| 20260903094515 | 24 | 154 | 1.6 | 3.2 | 0.00 | 0.00 | 0.00 | 62 | 1018.7 |
| 20260903094506 | 23 | 187 | 0.0 | 3.2 | 0.00 | 0.00 | 0.00 | 61 | 1018.5 |
| 20260903094450 | 24 | 83 | 1.6 | 3.2 | 0.00 | 0.00 | 0.00 | 61 | 1018.7 |
| 20260903094432 | 24 | 154 | 1.6 | 3.2 | 0.00 | 0.00 | 0.00 | 62 | 1018.7 |
| 20260903094123 | 24 | 191 | 1.6 | 3.2 | 0.00 | 0.00 | 0.00 | 62 | 1018.7 |
| 20260903094024 | 24 | 196 | 0.0 | 3.2 | 0.00 | 0.00 | 0.00 | 62 | 1018.8 |
| 20260903093923 | 23 | 200 | 1.6 | 3.2 | 0.00 | 0.00 | 0.00 | 62 | 1018.8 |
| 20260903093824 | 23 | 199 | 0.0 | 4.8 | 0.00 | 0.00 | 0.00 | 62 | 1018.8 |
| 20260903093723 | 23 | 146 | 1.6 | 4.8 | 0.00 | 0.00 | 0.00 | 62 | 1018.7 |
| 20260903093623 | 23 | 130 | 1.6 | 4.8 | 0.00 | 0.00 | 0.00 | 61 | 1019.0 |
| 20260903093524 | 23 | 193 | 1.6 | 4.8 | 0.00 | 0.00 | 0.00 | 62 | 1018.5 |
| 20260903093424 | 23 | 200 | 0.0 | 4.8 | 0.00 | 0.00 | 0.00 | 62 | 1018.9 |
| 20260903093323 | 23 | 196 | 0.0 | 4.8 | 0.00 | 0.00 | 0.00 | 61 | 1019.0 |
| 20260903093223 | 23 | 205 | 0.0 | 4.8 | 0.00 | 0.00 | 0.00 | 61 | 1018.7 |
| 20260903093124 | 23 | 198 | 1.6 | 4.8 | 0.00 | 0.00 | 0.00 | 62 | 1018.8 |
| 20260903093022 | 23 | 199 | 0.0 | 4.8 | 0.00 | 0.00 | 0.00 | 64 | 1018.9 |
| 20260903093001 | 23 | 203 | 0.0 | 4.8 | 0.00 | 0.00 | 0.00 | 60 | 1018.9 |
| 20260903092946 | 24 | 218 | 4.8 | 4.8 | 0.00 | 0.00 | 0.00 | 59 | 1018.8 |
| 20260903092921 | 24 | 202 | 0.0 | 4.8 | 0.00 | 0.00 | 0.00 | 60 | 1018.8 |
| 20260903092905 | 24 | 203 | 0.0 | 4.8 | 0.00 | 0.00 | 0.00 | 60 | 1018.5 |
| 20260903092324 | 23 | 205 | 0.0 | 4.8 | 0.00 | 0.00 | 0.00 | 62 | 1019.0 |
| 20260903092223 | 23 | 202 | 0.0 | 4.8 | 0.00 | 0.00 | 0.00 | 62 | 1018.8 |
| 20260903092124 | 23 | 177 | 0.0 | 4.8 | 0.00 | 0.00 | 0.00 | 62 | 1018.9 |
| 20260903092058 | 23 | 199 | 0.0 | 4.8 | 0.00 | 0.00 | 0.00 | 62 | 1019.0 |
| 20260903092043 | 23 | 203 | 0.0 | 4.8 | 0.00 | 0.00 | 0.00 | 60 | 1019.1 |
| 20260903091723 | 24 | 225 | 3.2 | 4.8 | 0.00 | 0.00 | 0.00 | 59 | 1018.9 |
| 20260903091623 | 25 | 221 | 1.6 | 3.2 | 0.00 | 0.00 | 0.00 | 58 | 1018.8 |
| 20260903091601 | 25 | 197 | 0.0 | 3.2 | 0.00 | 0.00 | 0.00 | 60 | 1018.9 |
| 20260903091544 | 25 | 196 | 0.0 | 3.2 | 0.00 | 0.00 | 0.00 | 59 | 1019.1 |
| 20260903091528 | 25 | 201 | 0.0 | 3.2 | 0.00 | 0.00 | 0.00 | 58 | 1019.0 |
| 20260903091302 | 25 | 205 | 0.0 | 3.2 | 0.00 | 0.00 | 0.00 | 57 | 1019.3 |
| 20260903091245 | 25 | 212 | 0.0 | 3.2 | 0.00 | 0.00 | 0.00 | 57 | 1018.8 |
| 20260903090924 | 25 | 209 | 1.6 | 3.2 | 0.00 | 0.00 | 0.00 | 60 | 1018.9 |
| 20260903090823 | 24 | 208 | 0.0 | 1.6 | 0.00 | 0.00 | 0.00 | 59 | 1018.9 |
| 20260903090723 | 24 | 198 | 0.0 | 1.6 | 0.00 | 0.00 | 0.00 | 58 | 1018.8 |
| 20260903090624 | 24 | 200 | 0.0 | 1.6 | 0.00 | 0.00 | 0.00 | 59 | 1018.9 |
| 20260903090601 | 23 | 199 | 0.0 | 1.6 | 0.00 | 0.00 | 0.00 | 61 | 1019.1 |
| 20260903090545 | 23 | 199 | 0.0 | 1.6 | 0.00 | 0.00 | 0.00 | 62 | 1019.1 |
| 20260903090223 | 23 | 162 | 1.6 | 1.6 | 0.00 | 0.00 | 0.00 | 62 | 1019.0 |
| 20260903090123 | 23 | 202 | 0.0 | 1.6 | 0.00 | 0.00 | 0.00 | 61 | 1019.0 |
| 20260903090023 | 23 | 199 | 0.0 | 1.6 | 0.00 | 0.00 | 0.00 | 62 | 1018.7 |
| 20260903085923 | 24 | 201 | 0.0 | 1.6 | 0.00 | 0.00 | 0.00 | 61 | 1019.1 |
| 20260903085823 | 24 | 204 | 0.0 | 1.6 | 0.00 | 0.00 | 0.00 | 60 | 1019.0 |
| 20260903085723 | 24 | 202 | 0.0 | 1.6 | 0.00 | 0.00 | 0.00 | 59 | 1019.1 |
| 20260903085623 | 23 | 198 | 0.0 | 1.6 | 0.00 | 0.00 | 0.00 | 60 | 1019.1 |
| 20260903085523 | 23 | 207 | 0.0 | 1.6 | 0.00 | 0.00 | 0.00 | 59 | 1019.1 |
| 20260903085505 | 23 | 203 | 0.0 | 0.0 | 0.00 | 0.00 | 0.00 | 58 | 1019.0 |
| 20260903085450 | 23 | 201 | 0.0 | 0.0 | 0.00 | 0.00 | 0.00 | 61 | 1019.1 |
| 20260903085223 | 23 | 202 | 0.0 | 0.0 | 0.00 | 0.00 | 0.00 | 62 | 1019.1 |
| 20260903085159 | 23 | 195 | 0.0 | 0.0 | 0.00 | 0.00 | 0.00 | 62 | 1019.0 |
| 20260903085143 | 23 | 204 | 0.0 | 0.0 | 0.00 | 0.00 | 0.00 | 63 | 1019.0 |
| 20260903084823 | 23 | 199 | 0.0 | 0.0 | 0.00 | 0.00 | 0.00 | 63 | 1019.3 |
| 20260903084722 | 22 | 199 | 0.0 | 0.0 | 0.00 | 0.00 | 0.00 | 65 | 1019.2 |
| 20260903084227 | 22 | 202 | 0.0 | 3.2 | 0.00 | 0.00 | 0.00 | 65 | 1019.1 |
| 20260903083906 | 22 | 204 | 1.6 | 3.2 | 0.00 | 0.00 | 0.00 | 62 | 1019.1 |
| 20260903083809 | 22 | 199 | 0.0 | 3.2 | 0.00 | 0.00 | 0.00 | 63 | 1019.1 |
| 20260903083727 | 22 | 196 | 1.6 | 3.2 | 0.00 | 0.00 | 0.00 | 62 | 1019.1 |
| 20260903083707 | 22 | 202 | 0.0 | 3.2 | 0.00 | 0.00 | 0.00 | 62 | 1019.2 |
| 20260903083608 | 22 | 202 | 0.0 | 3.2 | 0.00 | 0.00 | 0.00 | 62 | 1019.2 |
| 20260903083507 | 22 | 201 | 0.0 | 3.2 | 0.00 | 0.00 | 0.00 | 63 | 1019.2 |
| 20260903083451 | 22 | 197 | 0.0 | 3.2 | 0.00 | 0.00 | 0.00 | 66 | 1019.2 |
| 20260903083435 | 22 | 201 | 0.0 | 3.2 | 0.00 | 0.00 | 0.00 | 66 | 1019.2 |
| 20260903083420 | 23 | 203 | 0.0 | 3.2 | 0.00 | 0.00 | 0.00 | 66 | 1019.2 |
| 20260903083143 | 22 | 202 | 0.0 | 1.6 | 0.00 | 0.00 | 0.00 | 65 | 1019.3 |
| 20260903083126 | 22 | 203 | 0.0 | 1.6 | 0.00 | 0.00 | 0.00 | 65 | 1019.0 |
| 20260903082808 | 22 | 201 | 0.0 | 1.6 | 0.00 | 0.00 | 0.00 | 67 | 1019.3 |
| 20260903082741 | 22 | 203 | 0.0 | 1.6 | 0.00 | 0.00 | 0.00 | 67 | 1019.3 |
| 20260903082706 | 22 | 196 | 0.0 | 1.6 | 0.00 | 0.00 | 0.00 | 68 | 1019.0 |
| 20260903082608 | 22 | 148 | 1.6 | 1.6 | 0.00 | 0.00 | 0.00 | 67 | 1019.4 |
| 20260903082507 | 22 | 187 | 0.0 | 1.6 | 0.00 | 0.00 | 0.00 | 66 | 1019.4 |
| 20260903082408 | 22 | 166 | 0.0 | 1.6 | 0.00 | 0.00 | 0.00 | 66 | 1019.1 |
| 20260903082307 | 22 | 191 | 1.6 | 1.6 | 0.00 | 0.00 | 0.00 | 66 | 1019.2 |
| 20260903082252 | 22 | 198 | 0.0 | 1.6 | 0.00 | 0.00 | 0.00 | 66 | 1019.2 |
| 20260903082244 | 22 | 200 | 0.0 | 1.6 | 0.00 | 0.00 | 0.00 | 66 | 1019.4 |
| 20260903082228 | 22 | 196 | 0.0 | 1.6 | 0.00 | 0.00 | 0.00 | 67 | 1019.3 |
| 20260903081943 | 22 | 200 | 0.0 | 1.6 | 0.00 | 0.00 | 0.00 | 68 | 1019.2 |
| 20260903081928 | 22 | 199 | 0.0 | 1.6 | 0.00 | 0.00 | 0.00 | 67 | 1019.2 |
| 20260903081913 | 22 | 201 | 0.0 | 1.6 | 0.00 | 0.00 | 0.00 | 67 | 1019.2 |
| 20260903081903 | 22 | 200 | 0.0 | 1.6 | 0.00 | 0.00 | 0.00 | 67 | 1019.4 |
| 20260903081847 | 22 | 191 | 0.0 | 1.6 | 0.00 | 0.00 | 0.00 | 68 | 1019.2 |
| 20260903081351 | 22 | 194 | 0.0 | 1.6 | 0.00 | 0.00 | 0.00 | 67 | 1019.1 |
| 20260903081336 | 22 | 198 | 0.0 | 1.6 | 0.00 | 0.00 | 0.00 | 67 | 1019.1 |
| 20260903081329 | 22 | 199 | 0.0 | 1.6 | 0.00 | 0.00 | 0.00 | 67 | 1019.2 |
| 20260903081007 | 22 | 196 | 0.0 | 1.6 | 0.00 | 0.00 | 0.00 | 66 | 1019.2 |
| 20260903080907 | 22 | 198 | 0.0 | 1.6 | 0.00 | 0.00 | 0.00 | 67 | 1019.1 |
| 20260903080807 | 22 | 198 | 0.0 | 1.6 | 0.00 | 0.00 | 0.00 | 68 | 1019.3 |
| 20260903080739 | 22 | 200 | 0.0 | 1.6 | 0.00 | 0.00 | 0.00 | 69 | 1019.3 |
| 20260903080707 | 22 | 200 | 0.0 | 1.6 | 0.00 | 0.00 | 0.00 | 69 | 1019.2 |
| 20260903080643 | 22 | 200 | 0.0 | 1.6 | 0.00 | 0.00 | 0.00 | 70 | 1019.1 |
| 20260903080627 | 22 | 207 | 0.0 | 1.6 | 0.00 | 0.00 | 0.00 | 70 | 1019.2 |
| 20260903080612 | 21 | 201 | 0.0 | 1.6 | 0.00 | 0.00 | 0.00 | 72 | 1019.4 |
| 20260903080557 | 21 | 200 | 0.0 | 1.6 | 0.00 | 0.00 | 0.00 | 72 | 1019.3 |
| 20260903080542 | 21 | 192 | 0.0 | 1.6 | 0.00 | 0.00 | 0.00 | 71 | 1019.3 |
| 20260903080008 | 21 | 181 | 1.6 | 1.6 | 0.00 | 0.00 | 0.00 | 71 | 1019.4 |
| 20260903075907 | 21 | 191 | 1.6 | 1.6 | 0.00 | 0.00 | 0.00 | 72 | 1019.1 |
| 20260903075809 | 21 | 177 | 1.6 | 3.2 | 0.00 | 0.00 | 0.00 | 72 | 1019.3 |
| 20260903075728 | 21 | 175 | 0.0 | 4.8 | 0.00 | 0.00 | 0.00 | 73 | 1019.3 |
| 20260903075706 | 21 | 204 | 0.0 | 6.4 | 0.00 | 0.00 | 0.00 | 73 | 1019.3 |
| 20260903075607 | 21 | 197 | 1.6 | 6.4 | 0.00 | 0.00 | 0.00 | 72 | 1019.2 |
| 20260903075507 | 22 | 196 | 0.0 | 6.4 | 0.00 | 0.00 | 0.00 | 72 | 1019.3 |
| 20260903075406 | 22 | 203 | 0.0 | 6.4 | 0.00 | 0.00 | 0.00 | 71 | 1019.3 |
| 20260903075307 | 22 | 199 | 0.0 | 6.4 | 0.00 | 0.00 | 0.00 | 70 | 1019.4 |
| 20260903075227 | 22 | 205 | 0.0 | 6.4 | 0.00 | 0.00 | 0.00 | 70 | 1019.4 |
| 20260903075208 | 22 | 204 | 0.0 | 6.4 | 0.00 | 0.00 | 0.00 | 71 | 1019.4 |
| 20260903075106 | 21 | 207 | 0.0 | 6.4 | 0.00 | 0.00 | 0.00 | 71 | 1019.3 |
| 20260903075007 | 21 | 203 | 1.6 | 6.4 | 0.00 | 0.00 | 0.00 | 70 | 1019.4 |
| 20260903074914 | 21 | 203 | 0.0 | 6.4 | 0.00 | 0.00 | 0.00 | 71 | 1019.0 |
| 20260903074807 | 22 | 216 | 3.2 | 6.4 | 0.00 | 0.00 | 0.00 | 71 | 1019.0 |
| 20260903074727 | 22 | 217 | 6.4 | 6.4 | 0.00 | 0.00 | 0.00 | 71 | 1019.3 |
| 20260903074707 | 22 | 208 | 3.2 | 4.8 | 0.00 | 0.00 | 0.00 | 71 | 1019.3 |
| 20260903074643 | 22 | 200 | 0.0 | 3.2 | 0.00 | 0.00 | 0.00 | 71 | 1019.3 |
| 20260903074628 | 22 | 176 | 0.0 | 3.2 | 0.00 | 0.00 | 0.00 | 69 | 1019.2 |
| 20260903074308 | 22 | 208 | 0.0 | 3.2 | 0.00 | 0.00 | 0.00 | 70 | 1019.0 |
| 20260903074227 | 22 | 199 | 0.0 | 3.2 | 0.00 | 0.00 | 0.00 | 70 | 1019.0 |
| 20260903074207 | 22 | 199 | 0.0 | 3.2 | 0.00 | 0.00 | 0.00 | 70 | 1019.2 |
| 20260903074106 | 22 | 200 | 0.0 | 3.2 | 0.00 | 0.00 | 0.00 | 71 | 1019.2 |
| 20260903074023 | 22 | 201 | 0.0 | 3.2 | 0.00 | 0.00 | 0.00 | 71 | 1019.3 |
| 20260903074018 | 22 | 218 | 1.6 | 3.2 | 0.00 | 0.00 | 0.00 | 72 | 1019.4 |
| 20260903074002 | 22 | 202 | 0.0 | 3.2 | 0.00 | 0.00 | 0.00 | 72 | 1019.1 |
| 20260903073946 | 22 | 218 | 0.0 | 3.2 | 0.00 | 0.00 | 0.00 | 72 | 1019.3 |
| 20260903073707 | 22 | 198 | 0.0 | 3.2 | 0.00 | 0.00 | 0.00 | 71 | 1019.2 |
| 20260903073607 | 22 | 200 | 0.0 | 3.2 | 0.00 | 0.00 | 0.00 | 72 | 1019.3 |
| 20260903073506 | 22 | 194 | 0.0 | 3.2 | 0.00 | 0.00 | 0.00 | 71 | 1019.2 |
| 20260903073408 | 22 | 200 | 0.0 | 3.2 | 0.00 | 0.00 | 0.00 | 71 | 1019.2 |
| 20260903073307 | 22 | 200 | 0.0 | 3.2 | 0.00 | 0.00 | 0.00 | 71 | 1019.2 |
| 20260903073228 | 22 | 201 | 0.0 | 3.2 | 0.00 | 0.00 | 0.00 | 71 | 1019.2 |
| 20260903073207 | 22 | 204 | 1.6 | 3.2 | 0.00 | 0.00 | 0.00 | 70 | 1019.3 |
| 20260903073132 | 22 | 199 | 0.0 | 3.2 | 0.00 | 0.00 | 0.00 | 71 | 1019.3 |
| 20260903073116 | 22 | 207 | 1.6 | 1.6 | 0.00 | 0.00 | 0.00 | 70 | 1019.1 |
| 20260903073101 | 22 | 200 | 0.0 | 1.6 | 0.00 | 0.00 | 0.00 | 71 | 1019.2 |
| 20260903072828 | 22 | 200 | 0.0 | 6.4 | 0.00 | 0.00 | 0.00 | 70 | 1018.9 |
| 20260903072817 | 22 | 200 | 0.0 | 6.4 | 0.00 | 0.00 | 0.00 | 71 | 1019.2 |
| 20260903072524 | 21 | 199 | 0.0 | 6.4 | 0.00 | 0.00 | 0.00 | 73 | 1019.2 |
| 20260903072517 | 21 | 198 | 0.0 | 6.4 | 0.00 | 0.00 | 0.00 | 72 | 1019.1 |
| 20260903072501 | 21 | 199 | 0.0 | 6.4 | 0.00 | 0.00 | 0.00 | 73 | 1019.1 |
| 20260903072446 | 21 | 200 | 0.0 | 6.4 | 0.00 | 0.00 | 0.00 | 73 | 1019.2 |
| 20260903072155 | 21 | 196 | 0.0 | 6.4 | 0.00 | 0.00 | 0.00 | 73 | 1019.2 |
| 20260903072055 | 21 | 205 | 0.0 | 6.4 | 0.00 | 0.00 | 0.00 | 74 | 1019.2 |